Bel Air, Maryland - USA |
Today's Data File |
9/1/26
Time Wind Dir Wind Spd Wind Gust Hum In Humidity Temp In Temp Raw Barom Wind Chill Press Alt Cloud Base Dens Alt Temp Out R DailyRain 24HrRain RainRate
� mph mph % % �F �F in �F ft ft ft �F/hr in in in/hr
12:00am 164 0 0 44 97 72.4 73.0 29.49 73.0 397 224 1414 -0.26 0.00 0.00 0.000
12:01am 164 0 0 44 97 72.4 73.0 29.49 73.0 398 224 1415 -0.26 0.00 0.00 0.000
12:02am 164 0 0 44 97 72.4 73.0 29.49 73.0 399 224 1416 -0.26 0.00 0.00 0.000
12:03am 164 0 0 44 97 72.4 73.0 29.49 73.0 400 224 1417 -0.25 0.00 0.00 0.000
12:04am 164 0 0 44 97 72.4 73.0 29.49 73.0 401 224 1418 -0.25 0.00 0.00 0.000
12:05am 164 0 0 44 97 72.4 73.0 29.49 73.0 401 224 1418 -0.24 0.00 0.00 0.000
12:06am 164 0 0 44 97 72.4 73.0 29.49 73.0 401 224 1418 -0.24 0.00 0.00 0.000
12:07am 164 0 0 44 97 72.4 73.0 29.49 73.0 402 224 1419 -0.24 0.00 0.00 0.000
12:08am 164 0 0 44 97 72.4 73.0 29.49 73.0 403 224 1420 -0.23 0.00 0.00 0.000
12:09am 164 0 0 44 97 72.4 73.0 29.49 73.0 404 224 1421 -0.23 0.00 0.00 0.000
12:10am 164 0 0 44 97 72.6 73.1 29.49 73.1 405 224 1429 -0.12 0.00 0.00 0.000
12:11am 164 0 0 44 97 72.6 73.0 29.48 73.0 406 224 1424 -0.22 0.00 0.00 0.000
12:12am 164 0 0 44 97 72.6 73.0 29.48 73.0 406 224 1425 -0.22 0.00 0.00 0.000
12:13am 164 0 0 44 97 72.6 73.1 29.48 73.1 406 224 1431 -0.11 0.00 0.00 0.000
12:14am 164 0 0 44 97 72.6 73.0 29.48 73.0 406 224 1424 -0.21 0.00 0.00 0.000
12:15am 164 0 0 44 97 72.4 73.0 29.48 73.0 406 224 1424 -0.21 0.00 0.00 0.000
12:16am 164 0 0 44 97 72.4 73.1 29.49 73.1 404 224 1428 -0.11 0.00 0.00 0.000
12:17am 164 0 0 44 97 72.4 73.0 29.49 73.0 403 224 1420 -0.20 0.00 0.00 0.000
12:18am 164 0 0 44 97 72.4 73.0 29.49 73.0 404 224 1421 -0.20 0.00 0.00 0.000
12:19am 164 0 0 44 97 72.4 73.1 29.49 73.1 403 224 1427 -0.10 0.00 0.00 0.000
12:20am 164 0 0 44 97 72.4 73.1 29.49 73.1 403 224 1427 -0.10 0.00 0.00 0.000
12:21am 164 0 0 44 97 72.4 73.0 29.49 73.0 404 224 1421 -0.19 0.00 0.00 0.000
12:22am 164 0 0 44 97 72.4 73.0 29.49 73.0 405 224 1423 -0.19 0.00 0.00 0.000
12:23am 164 0 0 44 97 72.4 73.1 29.48 73.1 406 224 1430 -0.09 0.00 0.00 0.000
12:24am 164 0 0 44 97 72.4 73.0 29.48 73.0 406 224 1424 -0.19 0.00 0.00 0.000
12:25am 164 0 0 44 97 72.4 73.1 29.48 73.1 406 224 1431 -0.08 0.00 0.00 0.000
12:26am 164 0 0 44 97 72.4 73.0 29.48 73.0 407 224 1426 -0.18 0.00 0.00 0.000
12:27am 164 0 0 44 97 72.4 73.0 29.48 73.0 407 224 1426 -0.18 0.00 0.00 0.000
12:28am 164 0 0 44 97 72.4 73.1 29.48 73.1 406 224 1431 -0.08 0.00 0.00 0.000
12:29am 164 0 0 44 97 72.4 73.0 29.48 73.0 407 224 1426 -0.18 0.00 0.00 0.000
12:30am 164 0 0 44 97 72.3 73.0 29.48 73.0 407 224 1426 -0.17 0.00 0.00 0.000
12:31am 164 0 0 44 97 72.4 73.1 29.48 73.1 407 224 1432 -0.07 0.00 0.00 0.000
12:32am 164 0 0 44 97 72.4 73.0 29.48 73.0 407 224 1426 -0.17 0.00 0.00 0.000
12:33am 164 0 0 44 97 72.4 73.0 29.48 73.0 407 224 1426 -0.16 0.00 0.00 0.000
12:34am 164 0 0 44 97 72.4 73.0 29.48 73.0 407 224 1426 -0.16 0.00 0.00 0.000
12:35am 164 0 0 44 97 72.4 73.0 29.48 73.0 407 224 1426 -0.16 0.00 0.00 0.000
12:36am 164 0 0 44 97 72.4 73.0 29.48 73.0 407 224 1426 -0.16 0.00 0.00 0.000
12:37am 164 0 0 44 97 72.4 73.0 29.48 73.0 407 224 1426 -0.15 0.00 0.00 0.000
12:38am 164 0 0 44 97 72.4 73.0 29.48 73.0 407 224 1426 -0.15 0.00 0.00 0.000
12:39am 164 0 0 44 97 72.4 73.0 29.48 73.0 407 224 1426 -0.15 0.00 0.00 0.000
12:40am 164 0 0 44 97 72.4 73.0 29.48 73.0 407 224 1426 -0.15 0.00 0.00 0.000
12:41am 164 0 0 44 97 72.4 72.9 29.48 72.9 407 224 1420 -0.24 0.00 0.00 0.000
12:42am 164 0 0 44 97 72.4 73.0 29.48 73.0 407 224 1426 -0.14 0.00 0.00 0.000
12:43am 164 0 0 44 97 72.4 72.9 29.48 72.9 407 224 1420 -0.24 0.00 0.00 0.000
12:44am 164 0 0 44 97 72.4 72.9 29.48 72.9 407 224 1420 -0.23 0.00 0.00 0.000
12:45am 164 0 0 44 97 72.4 72.9 29.48 72.9 408 224 1421 -0.23 0.00 0.00 0.000
12:46am 164 0 0 44 97 72.4 72.9 29.48 72.9 408 224 1421 -0.22 0.00 0.00 0.000
12:47am 164 0 0 44 97 72.4 72.9 29.48 72.9 408 224 1421 -0.22 0.00 0.00 0.000
12:48am 164 0 0 44 97 72.4 72.8 29.48 72.8 408 224 1414 -0.32 0.00 0.00 0.000
12:49am 164 0 0 44 97 72.4 72.8 29.48 72.8 408 224 1414 -0.31 0.00 0.00 0.000
12:50am 164 0 0 44 97 72.4 72.8 29.48 72.8 408 224 1414 -0.31 0.00 0.00 0.000
12:51am 164 0 0 44 97 72.4 72.8 29.48 72.8 408 224 1414 -0.30 0.00 0.00 0.000
12:52am 164 0 0 44 97 72.4 72.8 29.48 72.8 408 224 1414 -0.30 0.00 0.00 0.000
12:53am 164 0 0 44 97 72.4 72.8 29.48 72.8 408 224 1414 -0.29 0.00 0.00 0.000
12:54am 164 0 0 44 97 72.4 72.8 29.48 72.8 408 224 1414 -0.29 0.00 0.00 0.000
12:55am 164 0 0 44 97 72.4 72.7 29.48 72.7 408 224 1408 -0.38 0.00 0.00 0.000
12:56am 164 0 0 44 97 72.4 72.7 29.48 72.7 408 224 1408 -0.37 0.00 0.00 0.000
12:57am 164 0 0 44 97 72.4 72.7 29.48 72.7 408 224 1408 -0.37 0.00 0.00 0.000
12:58am 164 0 0 44 98 72.4 72.7 29.48 72.7 408 148 1408 -0.36 0.00 0.00 0.000
12:59am 164 0 0 44 97 72.4 72.7 29.48 72.7 408 224 1408 -0.36 0.00 0.00 0.000
1:00am 164 0 0 44 98 72.4 72.7 29.48 72.7 408 148 1408 -0.35 0.00 0.00 0.000
1:01am 164 0 0 44 98 72.4 72.7 29.48 72.7 408 148 1408 -0.34 0.00 0.00 0.000
1:02am 164 0 0 44 98 72.4 72.6 29.48 72.6 408 148 1402 -0.44 0.00 0.00 0.000
1:03am 164 0 0 44 98 72.4 72.6 29.48 72.6 408 148 1402 -0.43 0.00 0.00 0.000
1:04am 164 0 0 44 98 72.4 72.6 29.48 72.6 409 148 1403 -0.42 0.00 0.00 0.000
1:05am 164 0 0 44 98 72.4 72.6 29.48 72.6 409 148 1403 -0.42 0.00 0.00 0.000
1:06am 164 0 0 44 98 72.4 72.6 29.48 72.6 409 148 1403 -0.41 0.00 0.00 0.000
1:07am 164 0 0 44 98 72.4 72.6 29.48 72.6 409 148 1403 -0.41 0.00 0.00 0.000
1:08am 164 0 0 44 98 72.4 72.6 29.48 72.6 409 148 1403 -0.40 0.00 0.00 0.000
1:09am 164 0 0 44 98 72.4 72.7 29.48 72.7 410 148 1410 -0.29 0.00 0.00 0.000
1:10am 164 0 0 44 98 72.4 72.6 29.48 72.6 411 148 1405 -0.39 0.00 0.00 0.000
1:11am 164 0 0 44 98 72.4 72.6 29.48 72.6 411 148 1405 -0.38 0.00 0.00 0.000
1:12am 164 0 0 44 98 72.4 72.6 29.48 72.6 411 148 1405 -0.38 0.00 0.00 0.000
1:13am 164 0 0 44 98 72.4 72.6 29.48 72.6 410 148 1404 -0.37 0.00 0.00 0.000
1:14am 164 0 0 44 98 72.4 72.6 29.48 72.6 411 148 1405 -0.36 0.00 0.00 0.000
1:15am 164 0 0 44 98 72.4 72.6 29.48 72.6 411 148 1405 -0.36 0.00 0.00 0.000
1:16am 164 0 0 44 98 72.4 72.6 29.48 72.6 410 148 1404 -0.35 0.00 0.00 0.000
1:17am 164 0 0 44 98 72.4 72.6 29.48 72.6 411 148 1405 -0.35 0.00 0.00 0.000
1:18am 164 0 0 44 98 72.4 72.6 29.48 72.6 412 148 1406 -0.34 0.00 0.00 0.000
1:19am 164 0 0 44 98 72.4 72.6 29.48 72.6 413 148 1407 -0.34 0.00 0.00 0.000
1:20am 164 0 0 44 98 72.4 72.6 29.48 72.6 414 148 1408 -0.33 0.00 0.00 0.000
1:21am 164 0 0 44 98 72.4 72.6 29.48 72.6 414 148 1408 -0.33 0.00 0.00 0.000
1:22am 164 0 0 44 98 72.4 72.6 29.47 72.6 415 148 1410 -0.32 0.00 0.00 0.000
1:23am 164 0 0 44 98 72.4 72.6 29.47 72.6 416 148 1411 -0.31 0.00 0.00 0.000
1:24am 164 0 0 44 98 72.4 72.5 29.47 72.5 416 148 1404 -0.41 0.00 0.00 0.000
1:25am 164 0 0 44 98 72.4 72.6 29.47 72.6 415 148 1410 -0.30 0.00 0.00 0.000
1:26am 164 0 0 44 98 72.4 72.5 29.47 72.5 416 148 1404 -0.40 0.00 0.00 0.000
1:27am 164 0 0 44 98 72.4 72.5 29.47 72.5 416 148 1404 -0.39 0.00 0.00 0.000
1:28am 164 0 0 44 98 72.4 72.5 29.47 72.5 417 148 1405 -0.39 0.00 0.00 0.000
1:29am 164 0 0 44 98 72.4 72.5 29.47 72.5 417 148 1405 -0.38 0.00 0.00 0.000
1:30am 164 0 0 44 98 72.4 72.5 29.47 72.5 416 148 1404 -0.37 0.00 0.00 0.000
1:31am 164 0 0 44 98 72.6 72.5 29.47 72.5 418 148 1407 -0.37 0.00 0.00 0.000
1:32am 164 0 0 44 98 72.6 72.4 29.47 72.4 418 148 1401 -0.46 0.00 0.00 0.000
1:33am 164 0 0 44 98 72.6 72.4 29.47 72.4 419 148 1402 -0.45 0.00 0.00 0.000
1:34am 164 0 0 44 98 72.6 72.4 29.47 72.4 419 148 1402 -0.45 0.00 0.00 0.000
1:35am 164 0 0 44 98 72.6 72.5 29.47 72.5 419 148 1409 -0.34 0.00 0.00 0.000
1:36am 164 0 0 44 98 72.6 72.4 29.47 72.4 419 148 1402 -0.43 0.00 0.00 0.000
1:37am 164 0 0 44 98 72.6 72.4 29.47 72.4 419 148 1402 -0.43 0.00 0.00 0.000
1:38am 164 0 0 44 98 72.6 72.5 29.47 72.5 419 148 1409 -0.32 0.00 0.00 0.000
1:39am 164 0 0 44 98 72.6 72.4 29.47 72.4 420 148 1404 -0.41 0.00 0.00 0.000
1:40am 164 0 0 44 98 72.6 72.5 29.47 72.5 420 148 1410 -0.31 0.00 0.00 0.000
1:41am 164 0 0 44 98 72.6 72.5 29.47 72.5 420 148 1410 -0.30 0.00 0.00 0.000
1:42am 164 0 0 44 98 72.6 72.5 29.47 72.5 420 148 1410 -0.30 0.00 0.00 0.000
1:43am 164 0 0 44 98 72.6 72.4 29.47 72.4 421 148 1405 -0.39 0.00 0.00 0.000
1:44am 164 0 0 44 98 72.6 72.4 29.47 72.4 421 148 1405 -0.38 0.00 0.00 0.000
1:45am 164 0 0 44 98 72.6 72.4 29.47 72.4 421 148 1405 -0.38 0.00 0.00 0.000
1:46am 164 0 0 44 98 72.6 72.4 29.47 72.4 421 148 1405 -0.37 0.00 0.00 0.000
1:47am 164 0 0 44 98 72.4 72.4 29.47 72.4 421 148 1405 -0.37 0.00 0.00 0.000
1:48am 164 0 0 44 98 72.4 72.4 29.47 72.4 422 148 1406 -0.36 0.00 0.00 0.000
1:49am 164 0 0 44 98 72.4 72.4 29.47 72.4 421 148 1405 -0.35 0.00 0.00 0.000
1:50am 164 0 0 44 98 72.4 72.4 29.47 72.4 421 148 1405 -0.35 0.00 0.00 0.000
1:51am 164 0 0 45 98 72.4 72.3 29.47 72.3 422 148 1399 -0.44 0.00 0.00 0.000
1:52am 164 0 0 44 98 72.4 72.3 29.47 72.3 422 148 1399 -0.43 0.00 0.00 0.000
1:53am 164 0 0 44 98 72.4 72.3 29.47 72.3 422 148 1399 -0.43 0.00 0.00 0.000
1:54am 164 0 0 44 98 72.4 72.3 29.47 72.3 422 148 1399 -0.42 0.00 0.00 0.000
1:55am 164 0 0 44 98 72.4 72.3 29.47 72.3 422 148 1399 -0.41 0.00 0.00 0.000
1:56am 164 0 0 44 98 72.4 72.3 29.47 72.3 422 148 1399 -0.41 0.00 0.00 0.000
1:57am 164 0 0 44 98 72.4 72.3 29.47 72.3 422 148 1399 -0.40 0.00 0.00 0.000
1:58am 164 0 0 44 98 72.4 72.2 29.47 72.2 422 148 1393 -0.49 0.00 0.00 0.000
1:59am 164 0 0 44 98 72.4 72.2 29.47 72.2 422 148 1393 -0.48 0.00 0.00 0.000
2:00am 164 0 0 44 98 72.4 72.2 29.47 72.2 421 148 1392 -0.47 0.00 0.00 0.000
2:01am 164 0 0 44 98 72.4 72.1 29.47 72.1 421 148 1386 -0.57 0.00 0.00 0.000
2:02am 164 0 0 44 98 72.4 72.2 29.47 72.2 421 148 1392 -0.46 0.00 0.00 0.000
2:03am 164 0 0 44 98 72.4 72.2 29.47 72.2 421 148 1392 -0.45 0.00 0.00 0.000
2:04am 164 0 0 44 98 72.4 72.2 29.47 72.2 421 148 1392 -0.44 0.00 0.00 0.000
2:05am 164 0 0 44 98 72.4 72.1 29.47 72.1 421 148 1386 -0.53 0.00 0.00 0.000
2:06am 164 0 0 44 98 72.4 72.1 29.47 72.1 421 148 1386 -0.52 0.00 0.00 0.000
2:07am 164 0 0 44 98 72.4 72.1 29.47 72.1 421 148 1386 -0.52 0.00 0.00 0.000
2:08am 164 0 0 44 98 72.4 72.1 29.47 72.1 421 148 1386 -0.51 0.00 0.00 0.000
2:09am 164 0 0 44 98 72.4 72.1 29.47 72.1 421 148 1386 -0.50 0.00 0.00 0.000
2:10am 164 0 0 44 98 72.6 72.1 29.47 72.1 421 148 1386 -0.49 0.00 0.00 0.000
2:11am 164 0 0 44 98 72.6 72.1 29.47 72.1 421 148 1386 -0.48 0.00 0.00 0.000
2:12am 164 0 0 44 98 72.6 72.0 29.47 72.0 421 148 1379 -0.57 0.00 0.00 0.000
2:13am 164 0 0 44 98 72.6 72.0 29.47 72.0 421 148 1379 -0.56 0.00 0.00 0.000
2:14am 164 0 0 44 98 72.6 72.1 29.47 72.1 422 148 1387 -0.45 0.00 0.00 0.000
2:15am 164 0 0 44 99 72.6 72.0 29.47 72.0 422 73 1380 -0.55 0.00 0.00 0.000
2:16am 164 0 0 44 99 72.6 72.0 29.47 72.0 422 73 1380 -0.54 0.00 0.00 0.000
2:17am 164 0 0 44 99 72.6 72.1 29.47 72.1 422 73 1387 -0.43 0.00 0.00 0.000
2:18am 164 0 0 44 99 72.6 72.1 29.47 72.1 422 73 1387 -0.42 0.00 0.00 0.000
2:19am 164 0 0 44 99 72.6 72.2 29.47 72.2 423 73 1394 -0.32 0.00 0.00 0.000
2:20am 164 0 0 44 99 72.6 72.2 29.47 72.2 423 73 1394 -0.31 0.00 0.00 0.000
2:21am 164 0 0 44 99 72.6 72.2 29.47 72.2 423 73 1394 -0.31 0.00 0.00 0.000
2:22am 164 0 0 45 99 72.6 72.2 29.47 72.2 423 73 1394 -0.30 0.00 0.00 0.000
2:23am 164 0 0 44 99 72.6 72.2 29.47 72.2 423 73 1394 -0.30 0.00 0.00 0.000
2:24am 164 0 0 44 99 72.6 72.2 29.47 72.2 423 73 1394 -0.29 0.00 0.00 0.000
2:25am 164 0 0 44 99 72.6 72.2 29.47 72.2 423 73 1394 -0.29 0.00 0.00 0.000
2:26am 164 0 0 44 99 72.6 72.2 29.47 72.2 423 73 1394 -0.28 0.00 0.00 0.000
2:27am 164 0 0 44 99 72.6 72.3 29.47 72.3 423 73 1401 -0.18 0.00 0.00 0.000
2:28am 164 0 0 44 99 72.6 72.3 29.47 72.3 422 73 1399 -0.17 0.00 0.00 0.000
2:29am 164 0 0 44 99 72.6 72.3 29.47 72.3 423 73 1401 -0.17 0.00 0.00 0.000
2:30am 164 0 0 44 99 72.4 72.3 29.47 72.3 423 73 1401 -0.17 0.00 0.00 0.000
2:31am 164 0 0 44 99 72.4 72.3 29.47 72.3 423 73 1401 -0.17 0.00 0.00 0.000
2:32am 164 0 0 44 99 72.4 72.3 29.46 72.3 424 73 1402 -0.16 0.00 0.00 0.000
2:33am 164 0 0 44 99 72.4 72.3 29.46 72.3 424 73 1402 -0.16 0.00 0.00 0.000
2:34am 164 0 0 44 99 72.4 72.3 29.46 72.3 424 73 1402 -0.16 0.00 0.00 0.000
2:35am 164 0 0 44 99 72.4 72.3 29.46 72.3 424 73 1402 -0.16 0.00 0.00 0.000
2:36am 164 0 0 44 99 72.4 72.3 29.46 72.3 424 73 1402 -0.15 0.00 0.00 0.000
2:37am 164 0 0 44 99 72.4 72.3 29.46 72.3 424 73 1402 -0.15 0.00 0.00 0.000
2:38am 164 0 0 44 99 72.4 72.3 29.47 72.3 423 73 1401 -0.15 0.00 0.00 0.000
2:39am 164 0 0 44 99 72.4 72.4 29.46 72.4 424 73 1408 -0.05 0.00 0.00 0.000
2:40am 164 0 0 44 99 72.4 72.4 29.46 72.4 424 73 1408 -0.05 0.00 0.00 0.000
2:41am 164 0 0 44 99 72.4 72.4 29.46 72.4 424 73 1408 -0.04 0.00 0.00 0.000
2:42am 164 0 0 44 99 72.4 72.4 29.46 72.4 424 73 1408 -0.04 0.00 0.00 0.000
2:43am 164 0 0 44 99 72.4 72.4 29.46 72.4 425 73 1409 -0.04 0.00 0.00 0.000
2:44am 164 0 0 44 99 72.4 72.5 29.46 72.5 425 73 1416 0.06 0.00 0.00 0.000
2:45am 164 0 0 44 99 72.4 72.5 29.46 72.5 425 73 1416 0.06 0.00 0.00 0.000
2:46am 164 0 0 44 99 72.4 72.5 29.46 72.5 426 73 1417 0.06 0.00 0.00 0.000
2:47am 164 0 0 44 99 72.4 72.6 29.46 72.6 427 73 1424 0.15 0.00 0.00 0.000
2:48am 164 0 0 44 99 72.4 72.5 29.46 72.5 428 73 1419 0.05 0.00 0.00 0.000
2:49am 164 0 0 44 99 72.6 72.5 29.46 72.5 429 73 1420 0.05 0.00 0.00 0.000
2:50am 164 0 0 44 99 72.6 72.5 29.46 72.5 430 73 1422 0.05 0.00 0.00 0.000
2:51am 164 0 0 44 99 72.6 72.6 29.46 72.6 431 73 1430 0.15 0.00 0.00 0.000
2:52am 164 0 0 44 99 72.6 72.5 29.45 72.5 433 73 1426 0.05 0.00 0.00 0.000
2:53am 164 0 0 44 99 72.6 72.5 29.45 72.5 434 73 1427 0.04 0.00 0.00 0.000
2:54am 164 0 0 44 99 72.6 72.6 29.45 72.6 434 73 1433 0.14 0.00 0.00 0.000
2:55am 164 0 0 44 99 72.6 72.5 29.45 72.5 434 73 1427 0.04 0.00 0.00 0.000
2:56am 164 0 0 44 99 72.6 72.5 29.45 72.5 434 73 1427 0.04 0.00 0.00 0.000
2:57am 164 0 0 44 99 72.6 72.5 29.45 72.5 435 73 1428 0.04 0.00 0.00 0.000
2:58am 164 0 0 44 99 72.6 72.5 29.45 72.5 435 73 1428 0.04 0.00 0.00 0.000
2:59am 164 0 0 44 99 72.6 72.5 29.45 72.5 435 73 1428 0.04 0.00 0.00 0.000
3:00am 164 0 0 44 99 72.6 72.4 29.45 72.4 436 73 1423 -0.06 0.00 0.00 0.000
3:01am 164 0 0 44 99 72.6 72.4 29.45 72.4 436 73 1423 -0.06 0.00 0.00 0.000
3:02am 164 0 0 44 99 72.6 72.4 29.45 72.4 436 73 1423 -0.06 0.00 0.00 0.000
3:03am 164 0 0 44 99 72.6 72.4 29.45 72.4 436 73 1423 -0.06 0.00 0.00 0.000
3:04am 164 0 0 44 99 72.6 72.4 29.45 72.4 436 73 1423 -0.06 0.00 0.00 0.000
3:05am 164 0 0 44 99 72.6 72.4 29.45 72.4 436 73 1423 -0.06 0.00 0.00 0.000
3:06am 164 0 0 44 99 72.6 72.4 29.45 72.4 436 73 1423 -0.05 0.00 0.00 0.000
3:07am 164 0 0 44 99 72.6 72.3 29.45 72.3 436 73 1416 -0.15 0.00 0.00 0.000
3:08am 164 0 0 44 99 72.6 72.3 29.45 72.3 436 73 1416 -0.15 0.00 0.00 0.000
3:09am 164 0 0 44 99 72.6 72.3 29.45 72.3 436 73 1416 -0.15 0.00 0.00 0.000
3:10am 164 0 0 44 99 72.6 72.3 29.45 72.3 436 73 1416 -0.15 0.00 0.00 0.000
3:11am 164 0 0 44 99 72.6 72.2 29.45 72.2 436 73 1410 -0.24 0.00 0.00 0.000
3:12am 164 0 0 44 99 72.6 72.2 29.45 72.2 436 73 1410 -0.24 0.00 0.00 0.000
3:13am 164 0 0 44 99 72.6 72.2 29.45 72.2 436 73 1410 -0.23 0.00 0.00 0.000
3:14am 164 0 0 44 99 72.6 72.2 29.45 72.2 436 73 1410 -0.23 0.00 0.00 0.000
3:15am 164 0 0 44 99 72.6 72.2 29.45 72.2 437 73 1411 -0.23 0.00 0.00 0.000
3:16am 164 0 0 44 99 72.6 72.1 29.45 72.1 437 73 1405 -0.32 0.00 0.00 0.000
3:17am 164 0 0 44 99 72.6 72.2 29.45 72.2 436 73 1410 -0.22 0.00 0.00 0.000
3:18am 164 0 0 44 99 72.6 72.2 29.45 72.2 436 73 1410 -0.21 0.00 0.00 0.000
3:19am 164 0 0 44 99 72.6 72.2 29.45 72.2 436 73 1410 -0.21 0.00 0.00 0.000
3:20am 164 0 0 44 99 72.6 72.1 29.45 72.1 436 73 1404 -0.31 0.00 0.00 0.000
3:21am 164 0 0 44 99 72.6 72.1 29.45 72.1 436 73 1404 -0.30 0.00 0.00 0.000
3:22am 164 0 0 44 99 72.6 72.1 29.45 72.1 436 73 1404 -0.30 0.00 0.00 0.000
3:23am 164 0 0 44 99 72.6 72.1 29.45 72.1 436 73 1404 -0.29 0.00 0.00 0.000
3:24am 164 0 0 44 99 72.6 72.1 29.45 72.1 437 73 1405 -0.29 0.00 0.00 0.000
3:25am 164 0 0 44 99 72.6 72.1 29.45 72.1 437 73 1405 -0.28 0.00 0.00 0.000
3:26am 164 0 0 44 99 72.6 72.1 29.45 72.1 437 73 1405 -0.28 0.00 0.00 0.000
3:27am 164 0 0 44 99 72.6 72.1 29.45 72.1 437 73 1405 -0.27 0.00 0.00 0.000
3:28am 164 0 0 44 99 72.6 72.1 29.45 72.1 437 73 1405 -0.27 0.00 0.00 0.000
3:29am 164 0 0 44 99 72.6 72.1 29.45 72.1 437 73 1405 -0.26 0.00 0.00 0.000
3:30am 164 0 0 44 99 72.6 72.0 29.45 72.0 437 73 1398 -0.36 0.00 0.00 0.000
3:31am 164 0 0 44 99 72.6 72.1 29.45 72.1 437 73 1405 -0.25 0.00 0.00 0.000
3:32am 164 0 0 44 99 72.6 72.1 29.45 72.1 437 73 1405 -0.25 0.00 0.00 0.000
3:33am 164 0 0 44 99 72.6 72.1 29.45 72.1 437 73 1405 -0.24 0.00 0.00 0.000
3:34am 164 0 0 44 99 72.6 72.1 29.45 72.1 438 73 1406 -0.24 0.00 0.00 0.000
3:35am 164 0 0 44 99 72.6 72.1 29.45 72.1 438 73 1406 -0.24 0.00 0.00 0.000
3:36am 164 0 0 44 99 72.6 72.1 29.45 72.1 439 73 1407 -0.23 0.00 0.00 0.000
3:37am 164 0 0 44 99 72.6 72.1 29.45 72.1 440 73 1408 -0.23 0.00 0.00 0.000
3:38am 164 0 0 44 99 72.6 72.1 29.45 72.1 441 73 1409 -0.22 0.00 0.00 0.000
3:39am 164 0 0 44 99 72.6 72.2 29.45 72.2 440 73 1415 -0.12 0.00 0.00 0.000
3:40am 164 0 0 44 99 72.6 72.1 29.45 72.1 441 73 1409 -0.22 0.00 0.00 0.000
3:41am 164 0 0 44 99 72.6 72.0 29.45 72.0 441 73 1403 -0.31 0.00 0.00 0.000
3:42am 164 0 0 44 99 72.6 72.1 29.45 72.1 440 73 1408 -0.21 0.00 0.00 0.000
3:43am 164 0 0 44 99 72.6 72.1 29.45 72.1 441 73 1409 -0.21 0.00 0.00 0.000
3:44am 164 0 0 44 99 72.6 72.1 29.45 72.1 441 73 1410 -0.20 0.00 0.00 0.000
3:45am 164 0 0 44 99 72.6 72.1 29.45 72.1 441 73 1410 -0.20 0.00 0.00 0.000
3:46am 164 0 0 44 99 72.8 72.0 29.44 72.0 442 73 1405 -0.30 0.00 0.00 0.000
3:47am 164 0 0 44 99 72.8 72.1 29.44 72.1 442 73 1412 -0.19 0.00 0.00 0.000
3:48am 164 0 0 44 99 72.8 72.0 29.44 72.0 442 73 1405 -0.29 0.00 0.00 0.000
3:49am 164 0 0 44 99 72.8 72.1 29.44 72.1 442 73 1412 -0.19 0.00 0.00 0.000
3:50am 164 0 0 44 99 72.8 72.1 29.44 72.1 444 73 1414 -0.18 0.00 0.00 0.000
3:51am 164 0 0 44 99 72.8 72.1 29.44 72.1 444 73 1414 -0.18 0.00 0.00 0.000
3:52am 164 0 0 44 99 72.8 72.1 29.44 72.1 444 73 1414 -0.18 0.00 0.00 0.000
3:53am 164 0 0 44 100 72.8 72.1 29.44 72.1 445 0 1415 -0.17 0.00 0.00 0.000
3:54am 164 0 0 44 100 72.8 72.1 29.44 72.1 445 0 1415 -0.17 0.00 0.00 0.000
3:55am 164 0 0 44 99 72.8 72.2 29.44 72.2 445 73 1421 -0.07 0.00 0.00 0.000
3:56am 164 0 0 44 99 72.8 72.2 29.44 72.2 445 73 1421 -0.07 0.00 0.00 0.000
3:57am 164 0 0 44 99 72.8 72.2 29.44 72.2 445 73 1421 -0.07 0.00 0.00 0.000
3:58am 164 0 0 44 99 72.8 72.2 29.44 72.2 444 73 1420 -0.06 0.00 0.00 0.000
3:59am 164 0 0 44 99 72.8 72.2 29.44 72.2 444 73 1420 -0.06 0.00 0.00 0.000
4:00am 164 0 0 44 99 72.8 72.2 29.44 72.2 443 73 1419 -0.06 0.00 0.00 0.000
4:01am 164 0 0 44 99 72.8 72.2 29.44 72.2 443 73 1419 -0.06 0.00 0.00 0.000
4:02am 164 0 0 44 99 72.6 72.3 29.44 72.3 444 73 1427 0.04 0.00 0.00 0.000
4:03am 164 0 0 44 99 72.6 72.2 29.44 72.2 444 73 1420 -0.06 0.00 0.00 0.000
4:04am 164 0 0 44 99 72.6 72.3 29.44 72.3 445 73 1428 0.04 0.00 0.00 0.000
4:05am 164 0 0 44 99 72.6 72.3 29.44 72.3 444 73 1427 0.04 0.00 0.00 0.000
4:06am 164 0 0 44 99 72.6 72.3 29.44 72.3 443 73 1425 0.04 0.00 0.00 0.000
4:07am 164 0 0 44 99 72.6 72.3 29.44 72.3 444 73 1427 0.04 0.00 0.00 0.000
4:08am 164 0 0 45 99 72.6 72.3 29.44 72.3 444 73 1427 0.04 0.00 0.00 0.000
4:09am 164 0 0 44 99 72.6 72.3 29.44 72.3 444 73 1427 0.04 0.00 0.00 0.000
4:10am 164 0 0 44 99 72.6 72.3 29.44 72.3 444 73 1427 0.04 0.00 0.00 0.000
4:11am 164 0 0 44 99 72.6 72.3 29.44 72.3 444 73 1427 0.04 0.00 0.00 0.000
4:12am 164 0 0 44 99 72.6 72.3 29.44 72.3 444 73 1427 0.03 0.00 0.00 0.000
4:13am 164 0 0 44 99 72.6 72.3 29.44 72.3 444 73 1427 0.03 0.00 0.00 0.000
4:14am 164 0 0 44 99 72.6 72.3 29.44 72.3 444 73 1427 0.03 0.00 0.00 0.000
4:15am 164 0 0 44 99 72.6 72.4 29.44 72.4 444 73 1433 0.13 0.00 0.00 0.000
4:16am 164 0 0 44 99 72.6 72.3 29.44 72.3 444 73 1427 0.03 0.00 0.00 0.000
4:17am 164 0 0 44 99 72.6 72.4 29.44 72.4 443 73 1432 0.13 0.00 0.00 0.000
4:18am 164 0 0 44 99 72.6 72.3 29.45 72.3 441 73 1423 0.03 0.00 0.00 0.000
4:19am 164 0 0 44 99 72.6 72.3 29.45 72.3 441 73 1422 0.03 0.00 0.00 0.000
4:20am 164 0 0 44 99 72.6 72.3 29.45 72.3 440 73 1421 0.03 0.00 0.00 0.000
4:21am 164 0 0 44 99 72.6 72.3 29.45 72.3 439 73 1420 0.03 0.00 0.00 0.000
4:22am 164 0 0 44 99 72.6 72.3 29.45 72.3 438 73 1419 0.03 0.00 0.00 0.000
4:23am 164 0 0 44 99 72.8 72.3 29.45 72.3 438 73 1419 0.03 0.00 0.00 0.000
4:24am 164 0 0 44 99 72.8 72.3 29.45 72.3 438 73 1419 0.03 0.00 0.00 0.000
4:25am 164 0 0 44 99 72.8 72.2 29.45 72.2 438 73 1412 -0.07 0.00 0.00 0.000
4:26am 164 0 0 44 99 72.8 72.2 29.45 72.2 437 73 1411 -0.07 0.00 0.00 0.000
4:27am 164 0 0 44 99 72.8 72.3 29.45 72.3 437 73 1418 0.03 0.00 0.00 0.000
4:28am 164 0 0 44 99 72.8 72.2 29.45 72.2 437 73 1411 -0.07 0.00 0.00 0.000
4:29am 164 0 0 44 99 72.8 72.2 29.45 72.2 437 73 1411 -0.07 0.00 0.00 0.000
4:30am 164 0 0 44 99 72.8 72.2 29.45 72.2 437 73 1411 -0.07 0.00 0.00 0.000
4:31am 164 0 0 44 99 72.8 72.2 29.45 72.2 436 73 1410 -0.07 0.00 0.00 0.000
4:32am 164 0 0 44 99 72.8 72.2 29.45 72.2 436 73 1410 -0.07 0.00 0.00 0.000
4:33am 164 0 0 44 99 72.8 72.2 29.45 72.2 436 73 1410 -0.07 0.00 0.00 0.000
4:34am 164 0 0 44 99 72.8 72.2 29.45 72.2 436 73 1410 -0.06 0.00 0.00 0.000
4:35am 164 0 0 44 99 72.8 72.2 29.45 72.2 436 73 1410 -0.06 0.00 0.00 0.000
4:36am 164 0 0 44 99 72.8 72.2 29.45 72.2 436 73 1410 -0.06 0.00 0.00 0.000
4:37am 164 0 0 44 99 72.8 72.2 29.45 72.2 436 73 1410 -0.06 0.00 0.00 0.000
4:38am 164 0 0 44 99 72.8 72.1 29.45 72.1 436 73 1404 -0.16 0.00 0.00 0.000
4:39am 164 0 0 44 99 72.8 72.1 29.45 72.1 436 73 1404 -0.16 0.00 0.00 0.000
4:40am 164 0 0 44 99 72.8 72.2 29.45 72.2 436 73 1410 -0.06 0.00 0.00 0.000
4:41am 164 0 0 44 100 73.0 72.2 29.45 72.2 437 0 1411 -0.06 0.00 0.00 0.000
4:42am 164 0 0 44 99 73.0 72.2 29.45 72.2 437 73 1411 -0.05 0.00 0.00 0.000
4:43am 164 0 0 44 99 72.8 72.2 29.45 72.2 437 73 1411 -0.05 0.00 0.00 0.000
4:44am 164 0 0 44 99 72.8 72.2 29.45 72.2 437 73 1411 -0.05 0.00 0.00 0.000
4:45am 164 0 0 44 100 72.8 72.2 29.45 72.2 437 0 1411 -0.05 0.00 0.00 0.000
4:46am 164 0 0 44 100 72.8 72.3 29.45 72.3 437 0 1418 0.05 0.00 0.00 0.000
4:47am 164 0 0 44 100 72.8 72.3 29.45 72.3 438 0 1419 0.05 0.00 0.00 0.000
4:48am 164 0 0 44 100 72.8 72.2 29.45 72.2 438 0 1412 -0.05 0.00 0.00 0.000
4:49am 164 0 0 44 100 72.8 72.2 29.45 72.2 438 0 1412 -0.05 0.00 0.00 0.000
4:50am 164 0 0 44 100 72.8 72.2 29.45 72.2 438 0 1412 -0.05 0.00 0.00 0.000
4:51am 164 0 0 44 100 72.8 72.3 29.45 72.3 438 0 1419 0.05 0.00 0.00 0.000
4:52am 164 0 0 44 99 72.8 72.2 29.45 72.2 437 73 1411 -0.05 0.00 0.00 0.000
4:53am 164 0 0 44 100 72.8 72.2 29.45 72.2 437 0 1411 -0.05 0.00 0.00 0.000
4:54am 164 0 0 44 99 72.8 72.3 29.45 72.3 437 73 1418 0.05 0.00 0.00 0.000
4:55am 164 0 0 44 99 72.8 72.2 29.45 72.2 437 73 1411 -0.05 0.00 0.00 0.000
4:56am 164 0 0 44 99 72.8 72.2 29.45 72.2 437 73 1411 -0.05 0.00 0.00 0.000
4:57am 164 0 0 44 99 72.8 72.2 29.45 72.2 437 73 1411 -0.05 0.00 0.00 0.000
4:58am 164 0 0 44 99 72.6 72.3 29.45 72.3 437 73 1418 0.05 0.00 0.00 0.000
4:59am 164 0 0 44 100 72.6 72.2 29.45 72.2 437 0 1411 -0.05 0.00 0.00 0.000
5:00am 164 0 0 44 99 72.6 72.2 29.45 72.2 438 73 1412 -0.05 0.00 0.00 0.000
5:01am 164 0 0 44 100 72.8 72.2 29.45 72.2 438 0 1412 -0.05 0.00 0.00 0.000
5:02am 164 0 0 44 100 72.6 72.2 29.45 72.2 438 0 1412 -0.05 0.00 0.00 0.000
5:03am 164 0 0 44 100 72.6 72.2 29.45 72.2 440 0 1415 -0.05 0.00 0.00 0.000
5:04am 164 0 0 44 100 72.8 72.2 29.45 72.2 440 0 1415 -0.05 0.00 0.00 0.000
5:05am 164 0 0 44 100 72.8 72.2 29.45 72.2 441 0 1416 -0.04 0.00 0.00 0.000
5:06am 164 0 0 44 100 72.8 72.2 29.45 72.2 441 0 1416 -0.04 0.00 0.00 0.000
5:07am 164 0 0 44 100 72.8 72.2 29.44 72.2 442 0 1418 -0.04 0.00 0.00 0.000
5:08am 164 0 0 44 100 72.8 72.2 29.45 72.2 441 0 1417 -0.04 0.00 0.00 0.000
5:09am 164 0 0 44 100 72.8 72.2 29.44 72.2 442 0 1418 -0.04 0.00 0.00 0.000
5:10am 164 0 0 44 100 72.8 72.2 29.44 72.2 444 0 1420 -0.04 0.00 0.00 0.000
5:11am 164 0 0 44 100 72.8 72.3 29.44 72.3 444 0 1427 0.06 0.00 0.00 0.000
5:12am 164 0 0 44 100 72.8 72.2 29.44 72.2 444 0 1420 -0.04 0.00 0.00 0.000
5:13am 164 0 0 44 100 72.8 72.2 29.44 72.2 445 0 1421 -0.04 0.00 0.00 0.000
5:14am 164 0 0 44 99 72.8 72.2 29.44 72.2 443 73 1419 -0.04 0.00 0.00 0.000
5:15am 164 0 0 44 100 72.8 72.2 29.44 72.2 443 0 1419 -0.04 0.00 0.00 0.000
5:16am 164 0 0 44 100 72.8 72.2 29.44 72.2 443 0 1419 -0.04 0.00 0.00 0.000
5:17am 164 0 0 44 100 72.8 72.2 29.44 72.2 442 0 1418 -0.04 0.00 0.00 0.000
5:18am 164 0 0 44 100 72.8 72.2 29.44 72.2 442 0 1418 -0.04 0.00 0.00 0.000
5:19am 164 0 0 44 100 72.8 72.2 29.44 72.2 443 0 1419 -0.04 0.00 0.00 0.000
5:20am 164 0 0 44 100 72.8 72.2 29.44 72.2 444 0 1420 -0.04 0.00 0.00 0.000
5:21am 164 0 0 44 100 72.8 72.2 29.44 72.2 445 0 1421 -0.04 0.00 0.00 0.000
5:22am 164 0 0 44 100 72.8 72.1 29.44 72.1 445 0 1415 -0.13 0.00 0.00 0.000
5:23am 164 0 0 44 100 72.8 72.1 29.44 72.1 448 0 1418 -0.13 0.00 0.00 0.000
5:24am 164 0 0 44 100 72.8 72.2 29.44 72.2 448 0 1425 -0.03 0.00 0.00 0.000
5:25am 164 0 0 44 100 72.8 72.1 29.44 72.1 449 0 1420 -0.13 0.00 0.00 0.000
5:26am 164 0 0 44 100 72.8 72.1 29.44 72.1 449 0 1420 -0.13 0.00 0.00 0.000
5:27am 164 0 0 44 100 73.0 72.1 29.44 72.1 449 0 1420 -0.13 0.00 0.00 0.000
5:28am 164 0 0 44 100 73.0 72.1 29.44 72.1 450 0 1421 -0.12 0.00 0.00 0.000
5:29am 164 0 0 44 100 73.0 72.0 29.44 72.0 450 0 1414 -0.22 0.00 0.00 0.000
5:30am 164 0 0 44 100 73.0 72.0 29.44 72.0 451 0 1415 -0.22 0.00 0.00 0.000
5:31am 164 0 0 44 100 73.0 72.0 29.44 72.0 451 0 1415 -0.21 0.00 0.00 0.000
5:32am 164 0 0 44 100 73.0 72.0 29.44 72.0 451 0 1415 -0.21 0.00 0.00 0.000
5:33am 164 0 0 44 100 73.0 72.0 29.44 72.0 451 0 1415 -0.21 0.00 0.00 0.000
5:34am 164 0 0 44 100 73.0 72.0 29.44 72.0 451 0 1415 -0.20 0.00 0.00 0.000
5:35am 164 0 0 44 100 73.0 72.0 29.44 72.0 451 0 1415 -0.20 0.00 0.00 0.000
5:36am 164 0 0 44 100 73.0 72.0 29.44 72.0 451 0 1415 -0.20 0.00 0.00 0.000
5:37am 164 0 0 44 100 73.0 72.0 29.44 72.0 451 0 1415 -0.19 0.00 0.00 0.000
5:38am 164 0 0 44 100 73.0 72.0 29.44 72.0 450 0 1414 -0.19 0.00 0.00 0.000
5:39am 164 0 0 44 100 73.0 72.0 29.44 72.0 450 0 1414 -0.19 0.00 0.00 0.000
5:40am 164 0 0 44 100 73.0 72.0 29.44 72.0 450 0 1414 -0.18 0.00 0.00 0.000
5:41am 164 0 0 44 100 73.0 71.9 29.44 71.9 451 0 1409 -0.28 0.00 0.00 0.000
5:42am 164 0 0 44 100 73.0 71.9 29.44 71.9 451 0 1409 -0.27 0.00 0.00 0.000
5:43am 164 0 0 44 100 73.0 71.9 29.44 71.9 451 0 1409 -0.27 0.00 0.00 0.000
5:44am 164 0 0 44 100 73.0 71.8 29.44 71.8 451 0 1403 -0.36 0.00 0.00 0.000
5:45am 164 0 0 44 100 73.0 71.8 29.43 71.8 452 0 1404 -0.36 0.00 0.00 0.000
5:46am 164 0 0 44 99 73.0 71.8 29.43 71.8 452 73 1404 -0.35 0.00 0.00 0.000
5:47am 164 0 0 44 99 72.8 71.8 29.43 71.8 452 73 1404 -0.35 0.00 0.00 0.000
5:48am 164 0 0 44 99 72.8 71.8 29.43 71.8 452 73 1404 -0.34 0.00 0.00 0.000
5:49am 164 0 0 44 99 72.8 71.7 29.43 71.7 452 73 1397 -0.43 0.00 0.00 0.000
5:50am 164 0 0 44 99 72.8 71.7 29.43 71.7 452 73 1397 -0.43 0.00 0.00 0.000
5:51am 164 0 0 44 99 72.8 71.7 29.43 71.7 452 73 1397 -0.42 0.00 0.00 0.000
5:52am 164 0 0 44 99 72.8 71.7 29.43 71.7 452 73 1397 -0.41 0.00 0.00 0.000
5:53am 164 0 0 44 99 72.8 71.7 29.43 71.7 452 73 1397 -0.40 0.00 0.00 0.000
5:54am 164 0 0 44 99 72.8 71.6 29.43 71.6 452 73 1391 -0.50 0.00 0.00 0.000
5:55am 164 0 0 44 99 72.8 71.6 29.43 71.6 452 73 1391 -0.49 0.00 0.00 0.000
5:56am 164 0 0 44 99 72.8 71.6 29.43 71.6 452 73 1391 -0.48 0.00 0.00 0.000
5:57am 164 0 0 44 100 72.8 71.6 29.43 71.6 452 0 1391 -0.47 0.00 0.00 0.000
5:58am 164 0 0 44 100 72.8 71.6 29.44 71.6 451 0 1390 -0.46 0.00 0.00 0.000
5:59am 164 0 0 44 100 72.8 71.6 29.44 71.6 451 0 1390 -0.46 0.00 0.00 0.000
6:00am 164 0 0 44 100 72.8 71.6 29.44 71.6 451 0 1390 -0.45 0.00 0.00 0.000
6:01am 164 0 0 44 100 72.8 71.6 29.44 71.6 451 0 1390 -0.44 0.00 0.00 0.000
6:02am 164 0 0 44 100 72.8 71.5 29.44 71.5 451 0 1384 -0.53 0.00 0.00 0.000
6:03am 164 0 0 44 100 72.8 71.5 29.44 71.5 450 0 1382 -0.53 0.00 0.00 0.000
6:04am 164 0 0 44 100 72.8 71.6 29.44 71.6 450 0 1389 -0.42 0.00 0.00 0.000
6:05am 164 0 0 44 100 72.8 71.6 29.44 71.6 451 0 1390 -0.41 0.00 0.00 0.000
6:06am 164 0 0 44 100 72.8 71.5 29.44 71.5 451 0 1384 -0.50 0.00 0.00 0.000
6:07am 164 0 0 44 100 72.8 71.6 29.44 71.6 451 0 1390 -0.40 0.00 0.00 0.000
6:08am 164 0 0 44 100 73.0 71.6 29.44 71.6 451 0 1390 -0.39 0.00 0.00 0.000
6:09am 164 0 0 44 100 73.0 71.6 29.44 71.6 451 0 1390 -0.38 0.00 0.00 0.000
6:10am 164 0 0 44 100 73.1 71.5 29.44 71.5 451 0 1384 -0.48 0.00 0.00 0.000
6:11am 164 0 0 44 100 73.1 71.5 29.44 71.5 451 0 1384 -0.47 0.00 0.00 0.000
6:12am 164 0 0 44 100 73.1 71.5 29.44 71.5 450 0 1382 -0.46 0.00 0.00 0.000
6:13am 164 0 0 44 100 73.0 71.5 29.44 71.5 451 0 1384 -0.45 0.00 0.00 0.000
6:14am 164 0 0 44 100 73.0 71.5 29.44 71.5 451 0 1384 -0.45 0.00 0.00 0.000
6:15am 164 0 0 44 100 73.0 71.4 29.44 71.4 451 0 1377 -0.54 0.00 0.00 0.000
6:16am 164 0 0 44 100 73.0 71.4 29.44 71.4 450 0 1376 -0.53 0.00 0.00 0.000
6:17am 164 0 0 44 100 73.1 71.5 29.44 71.5 450 0 1382 -0.42 0.00 0.00 0.000
6:18am 164 0 0 44 100 73.0 71.4 29.44 71.4 450 0 1376 -0.51 0.00 0.00 0.000
6:19am 164 0 0 44 100 73.0 71.4 29.44 71.4 450 0 1376 -0.51 0.00 0.00 0.000
6:20am 164 0 0 44 100 73.0 71.4 29.44 71.4 450 0 1376 -0.50 0.00 0.00 0.000
6:21am 164 0 0 44 100 73.0 71.4 29.44 71.4 449 0 1375 -0.49 0.00 0.00 0.000
6:22am 164 0 0 44 100 73.0 71.5 29.44 71.5 449 0 1381 -0.38 0.00 0.00 0.000
6:23am 164 0 0 44 100 73.0 71.5 29.44 71.5 449 0 1381 -0.38 0.00 0.00 0.000
6:24am 164 0 0 44 100 73.0 71.5 29.44 71.5 449 0 1381 -0.37 0.00 0.00 0.000
6:25am 164 0 0 44 100 73.1 71.5 29.44 71.5 450 0 1382 -0.36 0.00 0.00 0.000
6:26am 164 0 0 44 100 73.1 71.6 29.44 71.6 449 0 1388 -0.26 0.00 0.00 0.000
6:27am 164 0 0 44 100 73.1 71.6 29.44 71.6 449 0 1388 -0.25 0.00 0.00 0.000
6:28am 164 0 0 44 100 73.1 71.6 29.44 71.6 449 0 1388 -0.25 0.00 0.00 0.000
6:29am 164 0 0 44 100 73.1 71.6 29.44 71.6 449 0 1388 -0.24 0.00 0.00 0.000
6:30am 164 0 0 44 100 73.1 71.6 29.44 71.6 449 0 1388 -0.24 0.00 0.00 0.000
6:31am 164 0 0 44 100 73.1 71.6 29.44 71.6 450 0 1389 -0.24 0.00 0.00 0.000
6:32am 164 0 0 44 100 73.1 71.7 29.44 71.7 450 0 1395 -0.13 0.00 0.00 0.000
6:33am 164 0 0 44 100 73.1 71.7 29.44 71.7 450 0 1395 -0.13 0.00 0.00 0.000
6:34am 164 0 0 44 100 73.1 71.7 29.44 71.7 451 0 1396 -0.13 0.00 0.00 0.000
6:35am 164 0 0 44 100 73.1 71.7 29.44 71.7 451 0 1396 -0.13 0.00 0.00 0.000
6:36am 164 0 0 44 100 73.1 71.7 29.44 71.7 451 0 1396 -0.12 0.00 0.00 0.000
6:37am 164 0 0 44 100 73.1 71.7 29.44 71.7 451 0 1396 -0.12 0.00 0.00 0.000
6:38am 164 0 0 44 100 73.1 71.7 29.44 71.7 451 0 1396 -0.12 0.00 0.00 0.000
6:39am 164 0 0 44 100 73.1 71.7 29.44 71.7 451 0 1396 -0.12 0.00 0.00 0.000
6:40am 164 0 0 44 100 73.1 71.7 29.44 71.7 451 0 1396 -0.12 0.00 0.00 0.000
6:41am 164 0 0 44 100 73.1 71.8 29.44 71.8 451 0 1403 -0.02 0.00 0.00 0.000
6:42am 164 0 0 44 100 73.1 71.7 29.44 71.7 450 0 1395 -0.12 0.00 0.00 0.000
6:43am 164 0 0 44 100 73.3 71.8 29.44 71.8 450 0 1402 -0.02 0.00 0.00 0.000
6:44am 164 0 0 44 100 73.3 71.8 29.44 71.8 450 0 1402 -0.02 0.00 0.00 0.000
6:45am 164 0 0 44 100 73.3 71.8 29.44 71.8 450 0 1402 -0.02 0.00 0.00 0.000
6:46am 164 0 0 44 100 73.3 71.8 29.44 71.8 450 0 1402 -0.02 0.00 0.00 0.000
6:47am 164 0 0 44 100 73.3 71.8 29.44 71.8 450 0 1402 -0.02 0.00 0.00 0.000
6:48am 164 0 0 44 100 73.3 71.9 29.44 71.9 450 0 1408 0.08 0.00 0.00 0.000
6:49am 164 0 0 44 100 73.3 71.8 29.44 71.8 449 0 1400 -0.02 0.00 0.00 0.000
6:50am 164 0 0 44 100 73.3 71.8 29.44 71.8 449 0 1400 -0.02 0.00 0.00 0.000
6:51am 164 0 0 44 100 73.3 71.8 29.44 71.8 448 0 1399 -0.02 0.00 0.00 0.000
6:52am 164 0 0 44 100 73.3 71.7 29.44 71.7 446 0 1391 -0.12 0.00 0.00 0.000
6:53am 164 0 0 44 100 73.3 71.8 29.44 71.8 445 0 1396 -0.01 0.00 0.00 0.000
6:54am 164 0 0 44 100 73.3 71.7 29.44 71.7 443 0 1387 -0.11 0.00 0.00 0.000
6:55am 164 0 0 44 100 73.3 71.7 29.44 71.7 445 0 1390 -0.11 0.00 0.00 0.000
6:56am 164 0 0 44 100 73.3 71.7 29.44 71.7 445 0 1390 -0.11 0.00 0.00 0.000
6:57am 164 0 0 44 100 73.3 71.7 29.44 71.7 448 0 1393 -0.11 0.00 0.00 0.000
6:58am 164 0 0 44 100 73.3 71.7 29.44 71.7 448 0 1393 -0.11 0.00 0.00 0.000
6:59am 164 0 0 44 100 73.3 71.7 29.44 71.7 449 0 1394 -0.10 0.00 0.00 0.000
7:00am 164 0 0 44 100 73.5 71.7 29.44 71.7 449 0 1394 -0.10 0.00 0.00 0.000
7:01am 164 0 0 44 100 73.5 71.7 29.44 71.7 448 0 1393 -0.10 0.00 0.00 0.000
7:02am 164 0 0 44 100 73.5 71.7 29.44 71.7 446 0 1391 -0.10 0.00 0.00 0.000
7:03am 164 0 0 44 100 73.5 71.7 29.44 71.7 446 0 1391 -0.10 0.00 0.00 0.000
7:04am 164 0 0 44 100 73.5 71.7 29.44 71.7 448 0 1393 -0.09 0.00 0.00 0.000
7:05am 164 0 0 44 100 73.5 71.7 29.44 71.7 449 0 1394 -0.09 0.00 0.00 0.000
7:06am 164 0 0 44 100 73.5 71.8 29.44 71.8 450 0 1402 0.01 0.00 0.00 0.000
7:07am 164 0 0 44 100 73.5 71.9 29.44 71.9 450 0 1408 0.11 0.00 0.00 0.000
7:08am 164 0 0 44 100 73.5 71.9 29.44 71.9 450 0 1408 0.11 0.00 0.00 0.000
7:09am 164 0 0 44 100 73.5 71.9 29.44 71.9 451 0 1409 0.10 0.00 0.00 0.000
7:10am 164 0 0 44 100 73.5 71.9 29.44 71.9 451 0 1409 0.10 0.00 0.00 0.000
7:11am 164 0 0 44 100 73.5 72.0 29.44 72.0 451 0 1415 0.20 0.00 0.00 0.000
7:12am 164 0 0 44 100 73.5 72.0 29.44 72.0 451 0 1415 0.20 0.00 0.00 0.000
7:13am 164 0 0 44 100 73.5 72.0 29.44 72.0 451 0 1415 0.19 0.00 0.00 0.000
7:14am 164 0 0 44 100 73.5 72.1 29.44 72.1 451 0 1422 0.29 0.00 0.00 0.000
7:15am 164 0 0 44 100 73.5 72.1 29.44 72.1 450 0 1421 0.28 0.00 0.00 0.000
7:16am 164 0 0 44 100 73.6 72.1 29.44 72.1 450 0 1421 0.28 0.00 0.00 0.000
7:17am 164 0 0 44 100 73.6 72.1 29.44 72.1 449 0 1420 0.27 0.00 0.00 0.000
7:18am 164 0 0 44 100 73.6 72.1 29.44 72.1 449 0 1420 0.27 0.00 0.00 0.000
7:19am 164 0 0 44 100 73.6 72.1 29.44 72.1 448 0 1418 0.26 0.00 0.00 0.000
7:20am 164 0 0 44 100 73.6 72.2 29.44 72.2 448 0 1425 0.36 0.00 0.00 0.000
7:21am 164 0 0 45 100 73.6 72.3 29.44 72.3 448 0 1431 0.45 0.00 0.00 0.000
7:22am 164 0 0 44 100 73.6 72.3 29.44 72.3 446 0 1429 0.44 0.00 0.00 0.000
7:23am 164 0 0 44 100 73.6 72.3 29.44 72.3 448 0 1431 0.44 0.00 0.00 0.000
7:24am 164 0 0 44 100 73.6 72.4 29.44 72.4 446 0 1435 0.53 0.00 0.00 0.000
7:25am 164 0 0 44 100 73.6 72.4 29.44 72.4 448 0 1437 0.52 0.00 0.00 0.000
7:26am 164 0 0 44 100 73.6 72.4 29.44 72.4 449 0 1439 0.51 0.00 0.00 0.000
7:27am 164 0 0 44 100 73.6 72.5 29.44 72.5 450 0 1446 0.60 0.00 0.00 0.000
7:28am 164 0 0 44 100 73.6 72.5 29.44 72.5 450 0 1446 0.59 0.00 0.00 0.000
7:29am 164 0 0 44 100 73.6 72.5 29.44 72.5 449 0 1445 0.58 0.00 0.00 0.000
7:30am 164 0 0 44 100 73.6 72.5 29.44 72.5 448 0 1444 0.57 0.00 0.00 0.000
7:31am 164 0 0 44 100 73.6 72.6 29.44 72.6 447 0 1449 0.66 0.00 0.00 0.000
7:32am 164 1 2 44 100 73.8 72.6 29.44 72.6 448 0 1450 0.65 0.00 0.00 0.000
7:33am 164 0 2 44 100 73.8 72.6 29.44 72.6 448 0 1450 0.64 0.00 0.00 0.000
7:34am 164 0 2 44 100 73.8 72.6 29.44 72.6 449 0 1451 0.63 0.00 0.00 0.000
7:35am 164 0 2 44 100 73.8 72.7 29.44 72.7 448 0 1457 0.72 0.00 0.00 0.000
7:36am 164 0 0 45 100 73.8 72.7 29.44 72.7 448 0 1457 0.71 0.00 0.00 0.000
7:37am 164 0 0 45 100 73.8 72.8 29.44 72.8 447 0 1462 0.79 0.00 0.00 0.000
7:38am 164 0 0 44 100 73.8 72.8 29.44 72.8 447 0 1462 0.78 0.00 0.00 0.000
7:39am 164 1 2 44 100 73.8 72.9 29.44 72.9 446 0 1467 0.87 0.00 0.00 0.000
7:40am 164 0 2 44 100 73.8 73.0 29.44 73.0 445 0 1472 0.95 0.00 0.00 0.000
7:41am 164 1 2 44 100 73.8 73.0 29.44 73.0 446 0 1473 0.94 0.00 0.00 0.000
7:42am 164 1 2 44 100 73.8 73.0 29.44 73.0 446 0 1473 0.92 0.00 0.00 0.000
7:43am 164 1 2 44 100 73.8 73.1 29.44 73.1 446 0 1480 1.01 0.00 0.00 0.000
7:44am 164 0 2 44 100 73.8 73.1 29.44 73.1 447 0 1481 0.99 0.00 0.00 0.000
7:45am 164 0 3 45 100 74.0 73.2 29.44 73.2 448 0 1488 1.07 0.00 0.00 0.000
7:46am 164 1 3 45 100 74.0 73.3 29.44 73.3 448 0 1495 1.15 0.00 0.00 0.000
7:47am 164 2 3 44 100 74.0 73.3 29.44 73.3 448 0 1495 1.13 0.00 0.00 0.000
7:48am 164 1 3 44 100 74.0 73.4 29.44 73.4 447 0 1500 1.21 0.00 0.00 0.000
7:49am 164 1 3 44 100 74.0 73.4 29.44 73.4 448 0 1501 1.19 0.00 0.00 0.000
7:50am 164 0 3 45 100 74.0 73.5 29.44 73.5 447 0 1506 1.27 0.00 0.00 0.000
7:51am 164 1 2 45 100 74.0 73.6 29.44 73.6 447 0 1513 1.35 0.00 0.00 0.000
7:52am 164 0 2 45 100 74.0 73.6 29.44 73.6 448 0 1514 1.33 0.00 0.00 0.000
7:53am 164 0 2 45 100 74.0 73.6 29.44 73.6 448 0 1514 1.31 0.00 0.00 0.000
7:54am 164 0 2 45 100 74.0 73.7 29.44 73.7 448 0 1520 1.38 0.00 0.00 0.000
7:55am 164 0 2 45 100 74.0 73.8 29.44 73.8 448 0 1526 1.46 0.00 0.00 0.000
7:56am 164 0 2 44 100 74.0 73.8 29.44 73.8 445 0 1523 1.44 0.00 0.00 0.000
7:57am 164 0 2 44 100 74.0 73.8 29.44 73.8 445 0 1523 1.41 0.00 0.00 0.000
7:58am 227 5 6 45 100 74.0 73.9 29.44 73.9 444 0 1528 1.49 0.00 0.00 0.000
7:59am 229 0 6 45 100 74.0 74.0 29.44 74.0 442 0 1532 1.56 0.00 0.00 0.000
8:00am 229 0 6 45 100 74.2 74.0 29.44 74.0 443 0 1533 1.54 0.00 0.00 0.000
8:01am 229 0 0 45 100 74.2 74.0 29.44 74.0 442 0 1532 1.51 0.00 0.00 0.000
8:02am 230 1 1 45 100 74.2 74.1 29.45 74.1 441 0 1537 1.58 0.00 0.00 0.000
8:03am 346 2 2 45 100 74.2 74.2 29.44 74.2 442 0 1545 1.66 0.00 0.00 0.000
8:04am 346 0 3 45 100 74.2 74.2 29.45 74.2 441 0 1543 1.63 0.00 0.00 0.000
8:05am 347 2 3 44 100 74.2 74.3 29.45 74.3 441 0 1549 1.70 0.00 0.00 0.000
8:06am 347 0 2 45 100 74.2 74.4 29.45 74.4 440 0 1554 1.78 0.00 0.00 0.000
8:07am 347 0 2 45 100 74.2 74.4 29.45 74.4 441 0 1555 1.74 0.00 0.00 0.000
8:08am 347 0 2 45 100 74.2 74.5 29.45 74.5 439 0 1559 1.82 0.00 0.00 0.000
8:09am 347 2 2 45 100 74.2 74.6 29.45 74.6 440 0 1567 1.88 0.00 0.00 0.000
8:10am 347 1 2 45 100 74.2 74.7 29.45 74.7 439 0 1572 1.95 0.00 0.00 0.000
8:11am 345 0 1 45 100 74.2 74.8 29.45 74.8 439 0 1578 2.02 0.00 0.00 0.000
8:12am 245 1 2 45 100 74.2 74.9 29.45 74.9 440 0 1586 2.09 0.00 0.00 0.000
8:13am 243 1 2 45 100 74.2 74.9 29.45 74.9 439 0 1585 2.05 0.00 0.00 0.000
8:14am 243 0 2 45 100 74.3 75.0 29.45 75.0 439 0 1591 2.12 0.00 0.00 0.000
8:15am 245 0 2 45 100 74.3 75.1 29.45 75.1 439 0 1597 2.18 0.00 0.00 0.000
8:16am 245 2 2 45 100 74.3 75.2 29.45 75.2 439 0 1604 2.24 0.00 0.00 0.000
8:17am 245 0 2 45 100 74.3 75.3 29.45 75.3 438 0 1609 2.30 0.00 0.00 0.000
8:18am 245 0 2 45 100 74.3 75.3 29.45 75.3 438 0 1609 2.27 0.00 0.00 0.000
8:19am 245 0 2 45 100 74.3 75.4 29.45 75.4 438 0 1615 2.33 0.00 0.00 0.000
8:20am 245 0 2 45 100 74.3 75.5 29.45 75.5 438 0 1621 2.39 0.00 0.00 0.000
8:21am 245 0 0 45 100 74.3 75.5 29.45 75.5 439 0 1623 2.35 0.00 0.00 0.000
8:22am 245 0 1 45 100 74.3 75.6 29.45 75.6 439 0 1629 2.41 0.00 0.00 0.000
8:23am 245 1 2 45 99 74.3 75.5 29.45 75.5 439 74 1623 2.27 0.00 0.00 0.000
8:24am 245 0 2 45 99 74.3 75.6 29.45 75.6 439 74 1629 2.33 0.00 0.00 0.000
8:25am 245 0 2 45 99 74.3 75.6 29.45 75.6 439 74 1629 2.29 0.00 0.00 0.000
8:26am 245 0 0 45 99 74.3 75.6 29.45 75.6 437 74 1627 2.25 0.00 0.00 0.000
8:27am 246 0 0 45 99 74.3 75.6 29.45 75.6 437 74 1627 2.22 0.00 0.00 0.000
8:28am 246 0 0 45 99 74.3 75.6 29.45 75.6 437 74 1627 2.18 0.00 0.00 0.000
8:29am 229 1 3 45 99 74.3 75.6 29.45 75.6 437 74 1627 2.14 0.00 0.00 0.000
8:30am 229 1 3 45 98 74.5 75.6 29.45 75.6 437 150 1627 2.11 0.00 0.00 0.000
8:31am 229 1 2 45 98 74.5 75.5 29.45 75.5 438 150 1621 1.97 0.00 0.00 0.000
8:32am 230 3 3 45 98 74.5 75.6 29.45 75.6 438 150 1628 2.04 0.00 0.00 0.000
8:33am 231 1 3 45 98 74.5 75.6 29.45 75.6 438 150 1628 2.01 0.00 0.00 0.000
8:34am 185 4 4 45 98 74.5 75.5 29.45 75.5 438 150 1621 1.87 0.00 0.00 0.000
8:35am 185 0 4 45 98 74.5 75.5 29.45 75.5 438 150 1621 1.84 0.00 0.00 0.000
8:36am 185 0 2 45 98 74.5 75.5 29.45 75.5 438 150 1621 1.81 0.00 0.00 0.000
8:37am 184 2 3 45 98 74.5 75.6 29.45 75.6 439 150 1629 1.88 0.00 0.00 0.000
8:38am 184 0 3 45 98 74.5 75.6 29.45 75.6 439 150 1629 1.85 0.00 0.00 0.000
8:39am 184 1 3 45 98 74.5 75.6 29.45 75.6 440 150 1630 1.82 0.00 0.00 0.000
8:40am 184 0 3 45 98 74.5 75.7 29.45 75.7 440 150 1636 1.89 0.00 0.00 0.000
8:41am 184 1 2 45 98 74.5 75.7 29.45 75.7 441 150 1637 1.86 0.00 0.00 0.000
8:42am 184 0 2 45 98 74.5 75.7 29.45 75.7 441 150 1637 1.83 0.00 0.00 0.000
8:43am 184 1 2 45 98 74.7 75.8 29.44 75.8 442 150 1646 1.90 0.00 0.00 0.000
8:44am 184 1 2 45 98 74.7 75.8 29.45 75.8 441 150 1645 1.87 0.00 0.00 0.000
8:45am 184 1 2 45 97 74.7 75.8 29.44 75.8 443 227 1647 1.84 0.00 0.00 0.000
8:46am 184 2 2 45 97 74.7 75.8 29.44 75.8 443 227 1647 1.81 0.00 0.00 0.000
8:47am 184 0 2 45 97 74.7 75.8 29.44 75.8 443 227 1647 1.77 0.00 0.00 0.000
8:48am 184 2 3 45 97 74.7 75.8 29.44 75.8 446 227 1650 1.75 0.00 0.00 0.000
8:49am 184 2 3 45 97 74.7 75.9 29.44 75.9 448 227 1659 1.82 0.00 0.00 0.000
8:50am 184 0 3 45 97 74.7 75.9 29.44 75.9 449 227 1660 1.79 0.00 0.00 0.000
8:51am 184 0 1 45 97 74.7 76.0 29.44 76.0 449 227 1666 1.85 0.00 0.00 0.000
8:52am 184 0 2 45 96 74.7 76.0 29.44 76.0 451 305 1669 1.82 0.00 0.00 0.000
8:53am 184 0 2 45 96 74.7 76.1 29.44 76.1 451 305 1675 1.89 0.00 0.00 0.000
8:54am 184 1 2 46 96 74.7 76.2 29.44 76.2 451 305 1681 1.96 0.00 0.00 0.000
8:55am 184 1 2 45 96 74.7 76.2 29.44 76.2 451 305 1681 1.93 0.00 0.00 0.000
8:56am 184 2 4 45 96 74.7 76.2 29.43 76.2 452 305 1682 1.90 0.00 0.00 0.000
8:57am 184 2 4 45 96 74.7 76.2 29.43 76.2 452 305 1682 1.87 0.00 0.00 0.000
8:58am 184 1 4 45 96 74.9 76.3 29.43 76.3 452 305 1689 1.93 0.00 0.00 0.000
8:59am 184 0 4 45 96 74.9 76.4 29.43 76.4 452 305 1695 2.00 0.00 0.00 0.000
9:00am 184 1 4 45 96 74.9 76.4 29.43 76.4 452 305 1695 1.97 0.00 0.00 0.000
9:01am 184 1 1 45 96 74.9 76.5 29.43 76.5 453 305 1702 2.04 0.00 0.00 0.000
9:02am 184 1 3 45 95 74.9 76.5 29.43 76.5 453 384 1702 2.00 0.00 0.00 0.000
9:03am 184 0 3 45 95 74.9 76.5 29.43 76.5 453 384 1702 1.97 0.00 0.00 0.000
9:04am 184 0 3 45 95 74.9 76.6 29.43 76.6 453 384 1709 2.04 0.00 0.00 0.000
9:05am 184 0 3 45 95 74.9 76.6 29.43 76.6 453 384 1709 2.00 0.00 0.00 0.000
9:06am 184 1 1 45 95 74.9 76.7 29.43 76.7 453 384 1715 2.07 0.00 0.00 0.000
9:07am 184 0 1 45 95 74.9 76.7 29.43 76.7 453 384 1715 2.03 0.00 0.00 0.000
9:08am 184 0 1 45 95 74.9 76.9 29.43 76.9 453 384 1728 2.20 0.00 0.00 0.000
9:09am 184 2 2 45 95 74.9 76.9 29.43 76.9 453 384 1729 2.16 0.00 0.00 0.000
9:10am 184 0 2 45 94 74.9 76.9 29.43 76.9 453 464 1729 2.13 0.00 0.00 0.000
9:11am 184 2 2 45 94 74.9 76.9 29.43 76.9 453 464 1729 2.09 0.00 0.00 0.000
9:12am 185 3 3 45 94 74.9 76.9 29.43 76.9 454 464 1730 2.06 0.00 0.00 0.000
9:13am 185 0 3 45 94 74.9 77.0 29.43 77.0 455 464 1737 2.12 0.00 0.00 0.000
9:14am 185 2 3 45 94 74.9 77.1 29.43 77.1 455 464 1744 2.18 0.00 0.00 0.000
9:15am 185 0 3 45 94 74.9 77.1 29.43 77.1 455 464 1744 2.15 0.00 0.00 0.000
9:16am 185 0 1 45 94 74.9 77.3 29.43 77.3 455 464 1756 2.31 0.00 0.00 0.000
9:17am 185 0 1 45 94 74.9 77.3 29.43 77.3 455 464 1756 2.27 0.00 0.00 0.000
9:18am 185 0 1 45 94 74.9 77.4 29.43 77.4 456 465 1764 2.33 0.00 0.00 0.000
9:19am 185 2 2 45 94 74.9 77.5 29.43 77.5 458 465 1772 2.39 0.00 0.00 0.000
9:20am 185 1 2 45 94 74.9 77.6 29.43 77.6 459 465 1780 2.45 0.00 0.00 0.000
9:21am 185 0 1 45 94 74.9 77.6 29.43 77.6 460 465 1781 2.42 0.00 0.00 0.000
9:22am 185 1 2 45 93 74.9 77.7 29.43 77.7 460 545 1787 2.48 0.00 0.00 0.000
9:23am 185 0 2 45 93 74.9 77.8 29.43 77.8 461 546 1794 2.53 0.00 0.00 0.000
9:24am 185 0 2 45 93 74.7 77.9 29.42 77.9 462 546 1802 2.59 0.00 0.00 0.000
9:25am 185 1 2 45 93 74.7 78.0 29.42 78.0 463 546 1809 2.65 0.00 0.00 0.000
9:26am 185 0 1 45 93 74.7 78.1 29.42 78.1 462 546 1814 2.70 0.00 0.00 0.000
9:27am 185 0 1 45 93 74.7 78.2 29.43 78.2 460 546 1818 2.75 0.00 0.00 0.000
9:28am 185 0 1 45 93 74.7 78.2 29.43 78.2 456 546 1814 2.71 0.00 0.00 0.000
9:29am 185 0 1 45 92 74.7 78.2 29.43 78.2 454 628 1812 2.67 0.00 0.00 0.000
9:30am 185 0 2 45 92 74.7 78.3 29.43 78.3 453 628 1816 2.72 0.00 0.00 0.000
9:31am 185 0 0 45 92 74.7 78.3 29.43 78.3 452 628 1814 2.67 0.00 0.00 0.000
9:32am 185 0 0 45 92 74.7 78.4 29.43 78.4 452 628 1821 2.73 0.00 0.00 0.000
9:33am 185 0 0 45 92 74.7 78.4 29.43 78.4 452 628 1821 2.69 0.00 0.00 0.000
9:34am 185 0 0 45 92 74.7 78.4 29.43 78.4 452 628 1821 2.64 0.00 0.00 0.000
9:35am 185 0 0 45 92 74.7 78.4 29.44 78.4 451 628 1820 2.60 0.00 0.00 0.000
9:36am 185 0 1 45 92 74.7 78.4 29.44 78.4 451 628 1820 2.56 0.00 0.00 0.000
9:37am 185 0 1 45 92 74.7 78.4 29.44 78.4 451 628 1820 2.51 0.00 0.00 0.000
9:38am 185 0 1 45 92 74.7 78.4 29.44 78.4 451 628 1820 2.47 0.00 0.00 0.000
9:39am 185 0 1 45 91 74.7 78.4 29.44 78.4 451 710 1820 2.43 0.00 0.00 0.000
9:40am 185 0 1 45 92 74.7 78.4 29.44 78.4 451 628 1820 2.39 0.00 0.00 0.000
9:41am 185 0 0 45 92 74.7 78.5 29.44 78.5 451 628 1826 2.45 0.00 0.00 0.000
9:42am 185 0 0 45 92 74.7 78.5 29.43 78.5 452 628 1827 2.41 0.00 0.00 0.000
9:43am 185 0 0 45 92 74.9 78.6 29.43 78.6 452 629 1833 2.47 0.00 0.00 0.000
9:44am 185 0 0 45 92 74.9 78.7 29.43 78.7 452 629 1840 2.53 0.00 0.00 0.000
9:45am 185 0 0 45 92 74.9 78.7 29.43 78.7 452 629 1840 2.48 0.00 0.00 0.000
9:46am 185 0 0 45 92 74.9 78.9 29.43 78.9 452 629 1852 2.64 0.00 0.00 0.000
9:47am 185 0 1 45 92 74.9 79.1 29.43 79.1 452 630 1865 2.80 0.00 0.00 0.000
9:48am 185 2 2 45 91 74.9 79.2 29.43 79.2 453 713 1872 2.85 0.00 0.00 0.000
9:49am 259 3 3 45 91 74.9 79.3 29.43 79.3 453 713 1878 2.90 0.00 0.00 0.000
9:50am 186 1 4 45 90 74.9 79.4 29.43 79.4 452 796 1883 2.95 0.00 0.00 0.000
9:51am 186 0 1 45 90 74.9 79.6 29.43 79.6 452 797 1896 3.10 0.00 0.00 0.000
9:52am 186 0 1 45 90 74.9 79.8 29.43 79.8 452 798 1908 3.25 0.00 0.00 0.000
9:53am 186 0 1 45 90 74.9 79.9 29.43 79.9 452 798 1915 3.29 0.00 0.00 0.000
9:54am 186 0 1 45 90 74.9 80.0 29.43 80.0 452 798 1921 3.34 0.00 0.00 0.000
9:55am 186 0 1 45 90 74.9 80.1 29.44 80.1 451 799 1926 3.38 0.00 0.00 0.000
9:56am 186 0 0 45 90 74.9 80.2 29.43 80.2 452 799 1933 3.42 0.00 0.00 0.000
9:57am 186 0 0 45 90 74.9 80.3 29.44 80.3 451 799 1938 3.47 0.00 0.00 0.000
9:58am 188 1 2 45 89 74.9 80.3 29.44 80.3 451 884 1938 3.41 0.00 0.00 0.000
9:59am 188 1 2 45 89 74.9 80.4 29.43 80.4 452 884 1946 3.45 0.00 0.00 0.000
10:00am 188 1 2 45 89 75.0 80.5 29.43 80.5 453 884 1953 3.49 0.00 0.00 0.000
10:01am 188 0 1 45 89 75.0 80.7 29.43 80.7 453 885 1966 3.63 0.00 0.00 0.000
10:02am 188 2 2 45 89 75.0 80.9 29.43 80.9 453 886 1978 3.77 0.00 0.00 0.000
10:03am 356 0 3 45 88 75.0 80.9 29.43 80.9 452 971 1977 3.71 0.00 0.00 0.000
10:04am 329 1 3 45 88 74.9 81.1 29.43 81.1 453 972 1991 3.85 0.00 0.00 0.000
10:05am 329 0 3 45 88 74.9 81.3 29.43 81.3 453 973 2003 3.98 0.00 0.00 0.000
10:06am 329 0 0 45 88 74.9 81.4 29.44 81.4 451 973 2007 4.01 0.00 0.00 0.000
10:07am 331 1 1 45 88 74.9 81.5 29.43 81.5 452 973 2014 4.05 0.00 0.00 0.000
10:08am 271 4 5 45 88 74.9 81.6 29.43 81.6 452 974 2021 4.08 0.00 0.00 0.000
10:09am 5 0 5 45 86 74.9 81.7 29.43 81.7 452 1148 2027 4.11 0.00 0.00 0.000
10:10am 5 0 5 45 87 74.9 81.8 29.43 81.8 452 1061 2033 4.14 0.00 0.00 0.000
10:11am 193 3 3 45 87 74.9 81.9 29.43 81.9 453 1062 2040 4.17 0.00 0.00 0.000
10:12am 194 1 3 45 86 74.9 82.0 29.43 82.0 453 1150 2047 4.20 0.00 0.00 0.000
10:13am 194 1 3 45 86 74.9 82.1 29.43 82.1 453 1150 2053 4.23 0.00 0.00 0.000
10:14am 194 1 3 45 85 74.9 82.3 29.43 82.3 453 1239 2065 4.36 0.00 0.00 0.000
10:15am 120 3 3 45 85 74.9 82.3 29.43 82.3 453 1239 2066 4.29 0.00 0.00 0.000
10:16am 237 3 4 45 85 74.7 82.5 29.43 82.5 453 1240 2079 4.42 0.00 0.00 0.000
10:17am 184 1 4 45 85 74.7 82.6 29.43 82.6 453 1241 2085 4.44 0.00 0.00 0.000
10:18am 184 0 4 45 85 74.7 82.6 29.43 82.6 453 1241 2084 4.37 0.00 0.00 0.000
10:19am 256 1 4 45 85 74.7 82.7 29.43 82.7 453 1241 2090 4.40 0.00 0.00 0.000
10:20am 256 0 4 45 85 74.7 82.8 29.43 82.8 453 1242 2096 4.42 0.00 0.00 0.000
10:21am 256 0 2 45 85 74.7 82.9 29.43 82.9 453 1242 2103 4.45 0.00 0.00 0.000
10:22am 256 0 2 45 85 74.7 83.0 29.43 83.0 453 1243 2109 4.47 0.00 0.00 0.000
10:23am 258 0 2 45 85 74.7 83.0 29.43 83.0 453 1243 2109 4.40 0.00 0.00 0.000
10:24am 258 0 2 45 85 74.7 83.1 29.43 83.1 453 1243 2116 4.43 0.00 0.00 0.000
10:25am 258 0 2 45 85 74.7 83.2 29.43 83.2 453 1244 2122 4.45 0.00 0.00 0.000
10:26am 350 0 0 45 83 74.7 83.4 29.43 83.4 456 1425 2138 4.57 0.00 0.00 0.000
10:27am 215 0 0 45 83 74.7 83.5 29.43 83.5 458 1426 2146 4.60 0.00 0.00 0.000
10:28am 176 0 1 45 84 74.7 83.8 29.43 83.8 457 1337 2164 4.82 0.00 0.00 0.000
10:29am 291 2 2 45 84 74.7 83.9 29.43 83.9 458 1337 2171 4.84 0.00 0.00 0.000
10:30am 289 1 2 45 83 74.7 84.1 29.43 84.1 458 1430 2184 4.96 0.00 0.00 0.000
10:31am 229 2 5 45 83 74.7 84.2 29.43 84.2 457 1430 2189 4.97 0.00 0.00 0.000
10:32am 191 2 5 45 82 74.7 84.3 29.43 84.3 458 1523 2196 4.99 0.00 0.00 0.000
10:33am 187 1 5 45 82 74.7 84.4 29.43 84.4 457 1523 2201 5.01 0.00 0.00 0.000
10:34am 135 1 5 45 82 74.7 84.5 29.43 84.5 458 1524 2208 5.02 0.00 0.00 0.000
10:35am 300 1 5 45 81 74.7 84.5 29.43 84.5 459 1617 2209 4.94 0.00 0.00 0.000
10:36am 89 3 3 45 81 74.7 84.6 29.43 84.6 459 1618 2216 4.96 0.00 0.00 0.000
10:37am 89 0 3 45 81 74.7 84.7 29.43 84.7 459 1618 2222 4.97 0.00 0.00 0.000
10:38am 89 0 3 45 81 74.7 84.8 29.43 84.8 458 1619 2227 4.99 0.00 0.00 0.000
10:39am 89 0 3 45 82 74.7 84.8 29.43 84.8 457 1526 2226 4.91 0.00 0.00 0.000
10:40am 266 2 6 45 81 74.7 85.0 29.43 85.0 457 1620 2238 5.03 0.00 0.00 0.000
10:41am 226 1 3 45 81 74.7 85.1 29.43 85.1 457 1621 2244 5.04 0.00 0.00 0.000
10:42am 229 2 3 45 81 74.7 85.2 29.43 85.2 458 1622 2252 5.06 0.00 0.00 0.000
10:43am 310 1 3 45 80 74.7 85.2 29.43 85.2 457 1716 2250 4.97 0.00 0.00 0.000
10:44am 310 1 3 45 82 74.7 85.2 29.43 85.2 458 1528 2252 4.89 0.00 0.00 0.000
10:45am 310 0 3 45 81 74.7 85.2 29.43 85.2 458 1622 2252 4.81 0.00 0.00 0.000
10:46am 310 1 2 45 81 74.7 85.3 29.43 85.3 458 1622 2258 4.83 0.00 0.00 0.000
10:47am 310 1 2 45 82 74.7 85.4 29.43 85.4 457 1530 2263 4.85 0.00 0.00 0.000
10:48am 310 0 2 45 81 74.7 85.4 29.43 85.4 458 1623 2264 4.77 0.00 0.00 0.000
10:49am 314 1 2 45 80 74.5 85.4 29.43 85.4 457 1717 2263 4.70 0.00 0.00 0.000
10:50am 314 1 2 45 80 74.5 85.5 29.43 85.5 456 1718 2268 4.71 0.00 0.00 0.000
10:51am 314 0 1 45 81 74.5 85.6 29.43 85.6 456 1624 2274 4.74 0.00 0.00 0.000
10:52am 264 3 7 45 79 74.5 85.6 29.43 85.6 456 1814 2274 4.65 0.00 0.00 0.000
10:53am 251 3 7 45 80 74.5 85.7 29.43 85.7 457 1720 2281 4.68 0.00 0.00 0.000
10:54am 254 1 7 45 79 74.5 85.8 29.43 85.8 457 1816 2287 4.70 0.00 0.00 0.000
10:55am 212 1 7 45 80 74.5 85.8 29.43 85.8 456 1720 2286 4.62 0.00 0.00 0.000
10:56am 212 0 2 45 80 74.5 85.9 29.43 85.9 455 1721 2291 4.64 0.00 0.00 0.000
10:57am 212 0 2 45 80 74.5 86.0 29.43 86.0 455 1722 2298 4.67 0.00 0.00 0.000
10:58am 212 0 2 45 80 74.3 86.2 29.43 86.2 454 1723 2309 4.79 0.00 0.00 0.000
10:59am 310 2 4 45 80 74.3 86.2 29.43 86.2 454 1723 2309 4.71 0.00 0.00 0.000
11:00am 310 1 4 45 79 74.3 86.4 29.43 86.4 453 1820 2320 4.83 0.00 0.00 0.000
11:01am 195 2 2 45 79 74.3 86.5 29.43 86.5 453 1821 2326 4.85 0.00 0.00 0.000
11:02am 195 1 2 45 80 74.3 86.6 29.43 86.6 453 1726 2332 4.87 0.00 0.00 0.000
11:03am 187 0 2 45 79 74.3 86.7 29.43 86.7 453 1822 2338 4.88 0.00 0.00 0.000
11:04am 187 0 2 45 79 74.3 86.8 29.43 86.8 453 1823 2345 4.91 0.00 0.00 0.000
11:05am 187 0 2 45 79 74.3 86.9 29.43 86.9 453 1824 2351 4.92 0.00 0.00 0.000
11:06am 220 2 3 45 78 74.3 87.0 29.43 87.0 453 1922 2357 4.94 0.00 0.00 0.000
11:07am 217 0 3 45 78 74.2 87.0 29.43 87.0 453 1922 2357 4.86 0.00 0.00 0.000
11:08am 217 0 3 45 78 74.2 87.1 29.43 87.1 453 1923 2363 4.88 0.00 0.00 0.000
11:09am 217 0 3 45 78 74.2 87.1 29.43 87.1 453 1923 2363 4.80 0.00 0.00 0.000
11:10am 217 0 3 45 78 74.2 87.2 29.43 87.2 453 1923 2369 4.81 0.00 0.00 0.000
11:11am 217 0 0 46 79 74.2 87.2 29.43 87.2 454 1826 2370 4.73 0.00 0.00 0.000
11:12am 217 1 1 45 78 74.2 87.3 29.43 87.3 453 1924 2375 4.76 0.00 0.00 0.000
11:13am 217 0 1 45 77 74.2 87.3 29.43 87.3 454 2023 2376 4.68 0.00 0.00 0.000
11:14am 217 0 2 45 77 74.2 87.4 29.43 87.4 454 2023 2383 4.70 0.00 0.00 0.000
11:15am 217 0 2 45 78 74.2 87.4 29.43 87.4 454 1925 2383 4.62 0.00 0.00 0.000
11:16am 176 2 4 45 77 74.2 87.4 29.43 87.4 455 2023 2384 4.55 0.00 0.00 0.000
11:17am 191 1 4 45 77 74.2 87.3 29.43 87.3 455 2023 2378 4.37 0.00 0.00 0.000
11:18am 195 2 4 45 76 74.2 87.3 29.43 87.3 455 2122 2378 4.30 0.00 0.00 0.000
11:19am 196 1 4 45 75 74.2 87.3 29.43 87.3 456 2223 2379 4.23 0.00 0.00 0.000
11:20am 196 0 4 45 75 74.3 87.2 29.43 87.2 456 2222 2373 4.06 0.00 0.00 0.000
11:21am 242 3 4 45 75 74.3 87.3 29.43 87.3 457 2223 2380 4.09 0.00 0.00 0.000
11:22am 242 0 4 45 74 74.3 87.3 29.43 87.3 458 2324 2381 4.02 0.00 0.00 0.000
11:23am 356 0 4 45 75 74.3 87.4 29.43 87.4 458 2224 2387 4.06 0.00 0.00 0.000
11:24am 355 0 4 45 75 74.3 87.5 29.43 87.5 459 2224 2394 4.09 0.00 0.00 0.000
11:25am 355 1 4 45 76 74.3 87.5 29.43 87.5 458 2124 2393 4.02 0.00 0.00 0.000
11:26am 355 1 2 45 75 74.3 87.6 29.43 87.6 458 2225 2399 4.05 0.00 0.00 0.000
11:27am 152 2 3 45 75 74.3 87.6 29.43 87.6 458 2225 2399 3.99 0.00 0.00 0.000
11:28am 190 3 3 45 75 74.3 87.6 29.43 87.6 457 2225 2398 3.92 0.00 0.00 0.000
11:29am 191 0 3 45 74 74.2 87.6 29.43 87.6 457 2327 2398 3.85 0.00 0.00 0.000
11:30am 191 0 3 45 74 74.2 87.6 29.43 87.6 458 2327 2399 3.79 0.00 0.00 0.000
11:31am 285 4 4 45 74 74.2 87.6 29.43 87.6 459 2327 2400 3.73 0.00 0.00 0.000
11:32am 210 1 4 45 75 74.2 87.7 29.43 87.7 458 2226 2405 3.76 0.00 0.00 0.000
11:33am 224 2 4 45 76 74.2 87.7 29.43 87.7 457 2125 2404 3.71 0.00 0.00 0.000
11:34am 254 1 4 45 77 74.2 87.7 29.43 87.7 458 2026 2405 3.64 0.00 0.00 0.000
11:35am 116 0 4 45 73 74.2 87.7 29.43 87.7 460 2431 2408 3.58 0.00 0.00 0.000
11:36am 185 2 3 45 76 74.2 87.8 29.43 87.8 460 2126 2414 3.62 0.00 0.00 0.000
11:37am 224 1 3 45 76 74.2 87.9 29.43 87.9 461 2127 2421 3.66 0.00 0.00 0.000
11:38am 224 0 3 45 76 74.2 87.9 29.42 87.9 462 2127 2422 3.60 0.00 0.00 0.000
11:39am 224 0 3 45 76 74.2 88.0 29.42 88.0 464 2128 2431 3.64 0.00 0.00 0.000
11:40am 226 4 4 45 76 74.0 88.0 29.42 88.0 462 2128 2428 3.58 0.00 0.00 0.000
11:41am 218 1 5 45 74 74.0 88.0 29.42 88.0 462 2331 2428 3.52 0.00 0.00 0.000
11:42am 218 0 5 45 74 74.0 88.0 29.42 88.0 462 2331 2428 3.46 0.00 0.00 0.000
11:43am 218 0 5 45 76 74.0 87.9 29.43 87.9 460 2127 2420 3.31 0.00 0.00 0.000
11:44am 218 0 5 45 76 74.0 87.8 29.42 87.8 463 2126 2417 3.15 0.00 0.00 0.000
11:45am 219 0 5 45 77 74.0 87.8 29.42 87.8 463 2027 2417 3.10 0.00 0.00 0.000
11:46am 218 0 0 45 76 74.0 87.7 29.42 87.7 462 2125 2410 2.95 0.00 0.00 0.000
11:47am 218 0 1 45 74 74.0 87.7 29.43 87.7 460 2328 2408 2.90 0.00 0.00 0.000
11:48am 218 0 1 45 74 74.0 87.6 29.43 87.6 459 2327 2400 2.76 0.00 0.00 0.000
11:49am 218 0 1 45 75 74.0 87.6 29.43 87.6 458 2225 2399 2.71 0.00 0.00 0.000
11:50am 218 0 1 44 75 73.8 87.6 29.43 87.6 458 2225 2399 2.66 0.00 0.00 0.000
11:51am 218 0 0 44 75 73.8 87.6 29.43 87.6 458 2225 2399 2.62 0.00 0.00 0.000
11:52am 218 0 0 44 76 73.8 87.6 29.43 87.6 458 2125 2399 2.58 0.00 0.00 0.000
11:53am 218 0 0 44 76 73.8 87.5 29.43 87.5 457 2124 2392 2.43 0.00 0.00 0.000
11:54am 216 0 0 45 75 73.8 87.5 29.43 87.5 458 2224 2393 2.39 0.00 0.00 0.000
11:55am 201 0 0 45 76 73.8 87.4 29.43 87.4 460 2123 2389 2.26 0.00 0.00 0.000
11:56am 201 0 0 44 77 73.8 87.4 29.43 87.4 460 2023 2389 2.22 0.00 0.00 0.000
11:57am 201 0 0 45 77 73.8 87.3 29.43 87.3 461 2023 2384 2.08 0.00 0.00 0.000
11:58am 201 0 0 45 77 73.8 87.2 29.42 87.2 463 2022 2380 1.95 0.00 0.00 0.000
11:59am 201 0 0 45 77 73.8 87.1 29.42 87.1 464 2021 2375 1.82 0.00 0.00 0.000
12:00pm 201 0 0 44 77 73.8 87.0 29.42 87.0 464 2020 2370 1.69 0.00 0.00 0.000
12:01pm 201 0 0 45 77 73.8 87.0 29.42 87.0 464 2020 2370 1.66 0.00 0.00 0.000
12:02pm 201 0 0 45 78 73.8 87.0 29.42 87.0 464 1922 2370 1.64 0.00 0.00 0.000
12:03pm 201 0 0 44 77 73.8 86.8 29.42 86.8 464 2018 2358 1.41 0.00 0.00 0.000
12:04pm 201 0 0 45 77 73.8 86.7 29.42 86.7 465 2018 2353 1.29 0.00 0.00 0.000
12:05pm 201 0 0 44 76 73.8 86.6 29.42 86.6 465 2116 2347 1.17 0.00 0.00 0.000
12:06pm 201 0 0 45 78 73.8 86.6 29.42 86.6 466 1919 2348 1.15 0.00 0.00 0.000
12:07pm 201 0 0 45 78 73.8 86.4 29.42 86.4 465 1917 2335 0.93 0.00 0.00 0.000
12:08pm 201 0 0 45 78 73.8 86.4 29.42 86.4 464 1917 2333 0.92 0.00 0.00 0.000
12:09pm 201 0 0 44 77 73.8 86.2 29.42 86.2 464 2014 2320 0.70 0.00 0.00 0.000
12:10pm 95 1 3 44 77 74.0 86.1 29.42 86.1 464 2013 2314 0.59 0.00 0.00 0.000
12:11pm 95 2 2 45 77 74.0 85.9 29.42 85.9 464 2011 2302 0.38 0.00 0.00 0.000
12:12pm 95 0 3 45 77 74.0 85.7 29.42 85.7 462 2009 2287 0.18 0.00 0.00 0.000
12:13pm 95 0 3 45 78 74.0 85.6 29.42 85.6 462 1911 2281 0.08 0.00 0.00 0.000
12:14pm 95 0 3 44 78 74.0 85.5 29.42 85.5 462 1910 2275 -0.03 0.00 0.00 0.000
12:15pm 95 0 3 45 79 74.0 85.5 29.42 85.5 462 1814 2275 -0.03 0.00 0.00 0.000
12:16pm 95 0 0 45 79 74.0 85.4 29.42 85.4 462 1813 2268 -0.12 0.00 0.00 0.000
12:17pm 95 0 0 45 79 74.0 85.4 29.42 85.4 463 1813 2270 -0.12 0.00 0.00 0.000
12:18pm 95 0 0 45 80 74.0 85.2 29.42 85.2 464 1716 2258 -0.32 0.00 0.00 0.000
12:19pm 95 0 0 45 79 74.0 85.2 29.42 85.2 464 1811 2258 -0.31 0.00 0.00 0.000
12:20pm 95 0 0 45 79 74.0 85.2 29.42 85.2 464 1811 2258 -0.31 0.00 0.00 0.000
12:21pm 95 0 0 45 80 74.0 85.1 29.42 85.1 463 1715 2251 -0.40 0.00 0.00 0.000
12:22pm 95 0 0 44 80 74.0 85.0 29.42 85.0 464 1715 2246 -0.50 0.00 0.00 0.000
12:23pm 95 0 2 45 79 73.8 85.0 29.42 85.0 464 1810 2246 -0.49 0.00 0.00 0.000
12:24pm 95 0 2 45 80 73.8 85.0 29.42 85.0 464 1715 2247 -0.48 0.00 0.00 0.000
12:25pm 95 0 2 44 80 73.8 84.9 29.42 84.9 465 1714 2242 -0.57 0.00 0.00 0.000
12:26pm 95 0 1 44 81 73.8 84.9 29.42 84.9 465 1620 2242 -0.56 0.00 0.00 0.000
12:27pm 95 0 1 44 81 73.8 84.9 29.42 84.9 466 1620 2243 -0.55 0.00 0.00 0.000
12:28pm 95 0 1 44 81 73.8 84.9 29.42 84.9 466 1620 2243 -0.54 0.00 0.00 0.000
12:29pm 95 0 1 44 82 73.8 85.0 29.42 85.0 466 1527 2249 -0.44 0.00 0.00 0.000
12:30pm 95 1 1 44 82 73.8 84.9 29.42 84.9 467 1526 2244 -0.53 0.00 0.00 0.000
12:31pm 95 0 1 45 82 73.8 84.9 29.42 84.9 467 1526 2244 -0.52 0.00 0.00 0.000
12:32pm 95 0 1 45 82 73.8 85.0 29.42 85.0 467 1527 2250 -0.41 0.00 0.00 0.000
12:33pm 95 0 1 44 82 73.6 84.9 29.42 84.9 467 1526 2244 -0.50 0.00 0.00 0.000
12:34pm 95 1 1 45 81 73.6 84.8 29.42 84.8 467 1619 2238 -0.60 0.00 0.00 0.000
12:35pm 95 0 1 45 82 73.6 84.9 29.42 84.9 467 1526 2244 -0.49 0.00 0.00 0.000
12:36pm 95 0 0 44 81 73.6 84.9 29.42 84.9 467 1620 2244 -0.48 0.00 0.00 0.000
12:37pm 95 0 0 44 82 73.6 85.0 29.42 85.0 468 1527 2252 -0.37 0.00 0.00 0.000
12:38pm 95 2 2 44 82 73.6 85.0 29.42 85.0 468 1527 2252 -0.37 0.00 0.00 0.000
12:39pm 95 0 2 44 81 73.6 85.0 29.42 85.0 468 1620 2252 -0.36 0.00 0.00 0.000
12:40pm 95 0 2 45 81 73.6 85.1 29.42 85.1 468 1621 2258 -0.26 0.00 0.00 0.000
12:41pm 95 0 0 44 82 73.6 85.1 29.42 85.1 468 1528 2258 -0.25 0.00 0.00 0.000
12:42pm 95 0 0 45 82 73.6 85.2 29.42 85.2 468 1528 2264 -0.15 0.00 0.00 0.000
12:43pm 95 0 0 44 82 73.6 85.3 29.42 85.3 468 1529 2270 -0.05 0.00 0.00 0.000
12:44pm 95 1 2 44 82 73.6 85.4 29.42 85.4 469 1530 2277 0.05 0.00 0.00 0.000
12:45pm 95 0 2 44 82 73.6 85.4 29.42 85.4 469 1530 2277 0.05 0.00 0.00 0.000
12:46pm 95 1 2 45 81 73.6 85.4 29.42 85.4 469 1623 2277 0.05 0.00 0.00 0.000
12:47pm 95 0 2 44 81 73.6 85.4 29.42 85.4 470 1623 2279 0.05 0.00 0.00 0.000
12:48pm 95 2 2 45 81 73.6 85.5 29.42 85.5 469 1624 2284 0.15 0.00 0.00 0.000
12:49pm 95 1 3 44 81 73.6 85.6 29.42 85.6 470 1624 2291 0.24 0.00 0.00 0.000
12:50pm 95 1 3 44 81 73.6 85.6 29.41 85.6 473 1624 2294 0.24 0.00 0.00 0.000
12:51pm 95 0 1 45 82 73.6 85.7 29.41 85.7 476 1531 2304 0.34 0.00 0.00 0.000
12:52pm 95 2 2 44 81 73.6 85.7 29.41 85.7 478 1625 2307 0.33 0.00 0.00 0.000
12:53pm 95 1 2 44 79 73.6 85.6 29.41 85.6 478 1814 2301 0.22 0.00 0.00 0.000
12:54pm 95 0 2 44 79 73.6 85.7 29.40 85.7 480 1815 2309 0.32 0.00 0.00 0.000
12:55pm 95 0 2 44 81 73.6 85.8 29.40 85.8 481 1626 2317 0.41 0.00 0.00 0.000
12:56pm 95 1 1 45 81 73.6 85.9 29.40 85.9 481 1626 2323 0.51 0.00 0.00 0.000
12:57pm 95 0 1 44 80 73.8 85.9 29.40 85.9 481 1721 2323 0.50 0.00 0.00 0.000
12:58pm 95 0 1 44 81 73.8 86.0 29.40 86.0 480 1627 2328 0.59 0.00 0.00 0.000
12:59pm 95 0 1 45 81 73.8 86.0 29.40 86.0 480 1627 2328 0.58 0.00 0.00 0.000
1:00pm 95 0 2 45 80 73.8 86.0 29.40 86.0 480 1722 2328 0.57 0.00 0.00 0.000
1:01pm 95 1 1 44 78 73.8 86.0 29.40 86.0 481 1914 2329 0.56 0.00 0.00 0.000
1:02pm 95 2 2 44 81 73.8 86.1 29.40 86.1 481 1628 2335 0.65 0.00 0.00 0.000
1:03pm 95 2 3 44 81 73.8 86.2 29.40 86.2 481 1628 2341 0.74 0.00 0.00 0.000
1:04pm 95 0 3 44 81 73.8 86.2 29.40 86.2 482 1628 2342 0.73 0.00 0.00 0.000
1:05pm 95 0 3 44 80 73.8 86.2 29.40 86.2 482 1723 2342 0.72 0.00 0.00 0.000
1:06pm 95 0 1 44 80 73.8 86.2 29.40 86.2 482 1723 2342 0.70 0.00 0.00 0.000
1:07pm 95 0 1 44 81 73.8 86.2 29.40 86.2 483 1628 2344 0.69 0.00 0.00 0.000
1:08pm 95 1 2 44 80 73.6 86.4 29.40 86.4 483 1724 2356 0.88 0.00 0.00 0.000
1:09pm 95 2 3 44 80 73.6 86.5 29.40 86.5 483 1725 2362 0.96 0.00 0.00 0.000
1:10pm 95 0 3 44 80 73.6 86.6 29.40 86.6 483 1726 2368 1.05 0.00 0.00 0.000
1:11pm 95 0 0 44 80 73.6 86.7 29.40 86.7 483 1726 2374 1.13 0.00 0.00 0.000
1:12pm 283 2 4 44 80 73.6 86.7 29.40 86.7 483 1726 2374 1.11 0.00 0.00 0.000
1:13pm 305 0 4 44 79 73.6 86.7 29.40 86.7 483 1822 2374 1.09 0.00 0.00 0.000
1:14pm 305 0 4 44 79 73.6 86.7 29.40 86.7 482 1822 2373 1.07 0.00 0.00 0.000
1:15pm 305 0 4 44 80 73.6 86.7 29.40 86.7 481 1726 2372 1.06 0.00 0.00 0.000
1:16pm 300 1 2 45 79 73.6 86.8 29.40 86.8 480 1823 2377 1.14 0.00 0.00 0.000
1:17pm 156 0 3 44 79 73.6 86.9 29.40 86.9 482 1824 2386 1.22 0.00 0.00 0.000
1:18pm 160 0 3 44 79 73.6 87.0 29.40 87.0 482 1825 2392 1.30 0.00 0.00 0.000
1:19pm 220 3 3 44 79 73.6 87.2 29.40 87.2 482 1826 2404 1.47 0.00 0.00 0.000
1:20pm 215 2 3 44 76 73.5 87.2 29.40 87.2 482 2121 2404 1.45 0.00 0.00 0.000
1:21pm 221 1 3 44 77 73.5 87.3 29.40 87.3 482 2023 2410 1.53 0.00 0.00 0.000
1:22pm 173 3 4 44 79 73.5 87.5 29.40 87.5 483 1828 2423 1.70 0.00 0.00 0.000
1:23pm 173 1 4 44 78 73.5 87.5 29.40 87.5 483 1926 2423 1.67 0.00 0.00 0.000
1:24pm 177 2 4 44 77 73.5 87.6 29.40 87.6 483 2025 2430 1.74 0.00 0.00 0.000
1:25pm 140 4 7 44 77 73.5 87.6 29.40 87.6 483 2025 2430 1.71 0.00 0.00 0.000
1:26pm 225 4 4 44 76 73.5 87.7 29.40 87.7 483 2125 2436 1.78 0.00 0.00 0.000
1:27pm 152 2 4 44 76 73.5 87.8 29.40 87.8 483 2126 2442 1.85 0.00 0.00 0.000
1:28pm 153 0 4 46 77 73.5 87.8 29.40 87.8 484 2027 2443 1.83 0.00 0.00 0.000
1:29pm 153 0 4 44 77 73.5 87.8 29.40 87.8 483 2027 2442 1.79 0.00 0.00 0.000
1:30pm 156 0 4 44 76 73.5 87.9 29.40 87.9 484 2127 2449 1.86 0.00 0.00 0.000
1:31pm 335 3 3 44 77 73.5 88.0 29.40 88.0 484 2028 2455 1.93 0.00 0.00 0.000
1:32pm 209 3 3 44 76 73.3 88.1 29.40 88.1 483 2129 2460 2.00 0.00 0.00 0.000
1:33pm 212 3 3 44 77 73.3 88.2 29.40 88.2 483 2030 2466 2.07 0.00 0.00 0.000
1:34pm 213 0 3 44 76 73.3 88.3 29.40 88.3 483 2131 2473 2.13 0.00 0.00 0.000
1:35pm 213 3 3 44 77 73.5 88.5 29.40 88.5 484 2032 2486 2.29 0.00 0.00 0.000
1:36pm 172 3 3 45 74 73.5 88.7 29.40 88.7 484 2338 2498 2.45 0.00 0.00 0.000
1:37pm 219 3 5 44 75 73.5 88.8 29.40 88.8 484 2236 2504 2.51 0.00 0.00 0.000
1:38pm 227 3 5 44 74 73.5 89.0 29.40 89.0 484 2340 2517 2.67 0.00 0.00 0.000
1:39pm 358 1 6 44 76 73.5 89.1 29.40 89.1 484 2137 2523 2.72 0.00 0.00 0.000
|
Data provided from: Mark Hofmann's Bel Air, MD Weather Station |